Time,TemperatureF,DewpointF,PressureIn,WindDirection,WindDirectionDegrees,WindSpeedMPH,WindSpeedGustMPH,Humidity,HourlyPrecipIn,Conditions,Clouds,dailyrainin,SolarRadiationWatts/m^2,SoftwareType,DateUTC
2013-06-06 00:00:00,77.9,45.6,29.73,North,6,10.0,0.0,32,0.00,,,0.00,0,WeatherHawk,2013-06-06 07:00:00,
2013-06-06 00:01:00,78.4,45.3,29.73,NNE,12,8.0,0.0,31,0.00,,,0.00,0,WeatherHawk,2013-06-06 07:01:00,
2013-06-06 00:02:00,78.8,45.6,29.73,NNE,19,9.0,0.0,31,0.00,,,0.00,0,WeatherHawk,2013-06-06 07:02:00,
2013-06-06 00:06:00,79.0,44.9,29.73,NNE,17,7.0,0.0,30,0.00,,,0.00,0,WeatherHawk,2013-06-06 07:06:00,
2013-06-06 00:07:00,79.0,44.9,29.73,North,9,7.0,0.0,30,0.00,,,0.00,0,WeatherHawk,2013-06-06 07:07:00,
2013-06-06 00:09:00,79.2,45.0,29.73,NNE,29,5.0,15.0,30,0.00,,,0.00,0,WeatherHawk,2013-06-06 07:09:00,
2013-06-06 00:11:00,79.2,45.0,29.73,NNE,21,6.0,-999.0,30,0.00,,,0.00,0,WeatherHawk,2013-06-06 07:11:00,
2013-06-06 00:12:00,78.8,45.6,29.73,NNE,30,4.0,15.0,31,0.00,,,0.00,0,WeatherHawk,2013-06-06 07:12:00,
2013-06-06 00:16:00,77.9,45.6,29.73,NE,47,4.0,-999.0,32,0.00,,,0.00,0,WeatherHawk,2013-06-06 07:16:00,
2013-06-06 00:19:00,77.7,45.5,29.73,NE,44,4.0,8.0,32,0.00,,,0.00,0,WeatherHawk,2013-06-06 07:19:00,
2013-06-06 00:21:00,77.9,44.8,29.73,NE,52,4.0,8.0,31,0.00,,,0.00,0,WeatherHawk,2013-06-06 07:21:00,
2013-06-06 00:23:00,77.9,44.8,29.73,ENE,67,4.0,8.0,31,0.00,,,0.00,0,WeatherHawk,2013-06-06 07:23:00,
2013-06-06 00:26:00,78.1,45.0,29.73,ENE,73,3.0,8.0,31,0.00,,,0.00,0,WeatherHawk,2013-06-06 07:26:00,
2013-06-06 00:29:00,78.4,44.4,29.73,NE,53,3.0,5.0,30,0.00,,,0.00,1,WeatherHawk,2013-06-06 07:29:00,
2013-06-06 00:31:00,78.6,44.6,29.73,ENE,68,3.0,-999.0,30,0.00,,,0.00,0,WeatherHawk,2013-06-06 07:31:00,
2013-06-06 00:32:00,78.6,44.6,29.73,ENE,69,3.0,5.0,30,0.00,,,0.00,0,WeatherHawk,2013-06-06 07:32:00,
2013-06-06 00:33:00,78.8,44.7,29.73,East,80,4.0,5.0,30,0.00,,,0.00,0,WeatherHawk,2013-06-06 07:33:00,
2013-06-06 00:36:00,79.2,44.1,29.73,East,84,4.0,5.0,29,0.00,,,0.00,0,WeatherHawk,2013-06-06 07:36:00,
2013-06-06 00:38:00,79.3,44.3,29.73,East,93,4.0,5.0,29,0.00,,,0.00,0,WeatherHawk,2013-06-06 07:38:00,
2013-06-06 00:41:00,79.7,44.6,29.73,East,94,4.0,5.0,29,0.00,,,0.00,0,WeatherHawk,2013-06-06 07:41:00,
2013-06-06 00:42:00,79.7,43.7,29.73,East,95,3.0,5.0,28,0.00,,,0.00,0,WeatherHawk,2013-06-06 07:42:00,
2013-06-06 00:46:00,79.9,43.8,29.73,ESE,104,4.0,5.0,28,0.00,,,0.00,0,WeatherHawk,2013-06-06 07:46:00,
2013-06-06 00:48:00,79.9,44.8,29.73,ESE,109,4.0,4.0,29,0.00,,,0.00,0,WeatherHawk,2013-06-06 07:48:00,
2013-06-06 00:49:00,79.7,43.7,29.73,SE,133,4.0,4.0,28,0.00,,,0.00,0,WeatherHawk,2013-06-06 07:49:00,
2013-06-06 00:50:00,79.7,43.7,29.73,SE,135,4.0,4.0,28,0.00,,,0.00,0,WeatherHawk,2013-06-06 07:50:00,
2013-06-06 00:51:00,79.7,43.7,29.73,SE,135,4.0,4.0,28,0.00,,,0.00,0,WeatherHawk,2013-06-06 07:51:00,
2013-06-06 00:54:00,79.3,45.2,29.72,ESE,116,4.0,4.0,30,0.00,,,0.00,0,WeatherHawk,2013-06-06 07:54:00,
2013-06-06 00:56:00,79.2,44.1,29.72,SSE,147,4.0,4.0,29,0.00,,,0.00,0,WeatherHawk,2013-06-06 07:56:00,
2013-06-06 00:57:00,79.2,44.1,29.72,SE,137,4.0,5.0,29,0.00,,,0.00,0,WeatherHawk,2013-06-06 07:57:00,
2013-06-06 01:01:00,79.2,44.1,29.72,SSE,153,4.0,5.0,29,0.00,,,0.00,0,WeatherHawk,2013-06-06 08:01:00,
2013-06-06 01:04:00,79.0,45.7,29.72,SSE,157,5.0,5.0,31,0.00,,,0.00,0,WeatherHawk,2013-06-06 08:04:00,
2013-06-06 01:05:00,78.6,45.4,29.72,SSE,156,6.0,6.0,31,0.00,,,0.00,0,WeatherHawk,2013-06-06 08:05:00,
2013-06-06 01:06:00,78.4,46.1,29.72,SSE,154,5.0,5.0,32,0.00,,,0.00,0,WeatherHawk,2013-06-06 08:06:00,
2013-06-06 01:08:00,77.9,45.6,29.72,SSE,156,5.0,0.0,32,0.00,,,0.00,0,WeatherHawk,2013-06-06 08:08:00,
2013-06-06 01:11:00,77.9,45.6,29.72,SSE,151,4.0,0.0,32,0.00,,,0.00,0,WeatherHawk,2013-06-06 08:11:00,
2013-06-06 01:13:00,77.9,45.6,29.72,SSE,157,4.0,0.0,32,0.00,,,0.00,0,WeatherHawk,2013-06-06 08:13:00,
2013-06-06 01:16:00,77.7,45.5,29.72,SSE,153,5.0,0.0,32,0.00,,,0.00,1,WeatherHawk,2013-06-06 08:16:00,
2013-06-06 01:20:00,77.5,45.3,29.72,SE,136,4.0,5.0,32,0.00,,,0.00,0,WeatherHawk,2013-06-06 08:20:00,
2013-06-06 01:21:00,77.5,45.3,29.72,SE,136,4.0,5.0,32,0.00,,,0.00,0,WeatherHawk,2013-06-06 08:21:00,
2013-06-06 01:22:00,77.5,45.3,29.72,SE,135,4.0,5.0,32,0.00,,,0.00,0,WeatherHawk,2013-06-06 08:22:00,
2013-06-06 01:26:00,77.7,45.5,29.72,SSE,149,2.0,-999.0,32,0.00,,,0.00,0,WeatherHawk,2013-06-06 08:26:00,
2013-06-06 01:27:00,77.7,44.7,29.72,SE,144,2.0,0.0,31,0.00,,,0.00,0,WeatherHawk,2013-06-06 08:27:00,
2013-06-06 01:28:00,77.7,45.5,29.72,SSE,152,3.0,5.0,32,0.00,,,0.00,0,WeatherHawk,2013-06-06 08:28:00,
2013-06-06 01:31:00,78.1,45.0,29.71,SE,144,3.0,5.0,31,0.00,,,0.00,0,WeatherHawk,2013-06-06 08:31:00,
2013-06-06 01:33:00,78.8,43.8,29.71,SE,128,3.0,5.0,29,0.00,,,0.00,0,WeatherHawk,2013-06-06 08:33:00,
2013-06-06 01:36:00,79.3,45.2,29.71,SE,141,3.0,-999.0,30,0.00,,,0.00,0,WeatherHawk,2013-06-06 08:36:00,
2013-06-06 01:37:00,79.3,45.2,29.71,SSE,147,4.0,0.0,30,0.00,,,0.00,0,WeatherHawk,2013-06-06 08:37:00,
2013-06-06 01:38:00,79.2,45.0,29.71,SE,142,4.0,4.0,30,0.00,,,0.00,0,WeatherHawk,2013-06-06 08:38:00,
2013-06-06 01:41:00,78.8,45.6,29.71,SSE,151,4.0,4.0,31,0.00,,,0.00,0,WeatherHawk,2013-06-06 08:41:00,
2013-06-06 01:45:00,77.7,44.7,29.71,SE,142,3.0,4.0,31,0.00,,,0.00,0,WeatherHawk,2013-06-06 08:45:00,
2013-06-06 01:47:00,77.5,44.5,29.71,SE,129,3.0,0.0,31,0.00,,,0.00,0,WeatherHawk,2013-06-06 08:47:00,
2013-06-06 01:48:00,77.7,44.7,29.71,SE,131,2.0,4.0,31,0.00,,,0.00,0,WeatherHawk,2013-06-06 08:48:00,
2013-06-06 01:49:00,78.1,43.2,29.71,SE,125,2.0,4.0,29,0.00,,,0.00,0,WeatherHawk,2013-06-06 08:49:00,
2013-06-06 01:50:00,78.3,43.4,29.71,SE,133,3.0,4.0,29,0.00,,,0.00,0,WeatherHawk,2013-06-06 08:50:00,
2013-06-06 01:51:00,78.3,43.4,29.71,SE,133,3.0,-999.0,29,0.00,,,0.00,0,WeatherHawk,2013-06-06 08:51:00,
2013-06-06 01:55:00,79.5,43.5,29.71,SE,128,4.0,4.0,28,0.00,,,0.00,0,WeatherHawk,2013-06-06 08:55:00,
2013-06-06 01:56:00,79.7,43.7,29.71,SE,125,3.0,4.0,28,0.00,,,0.00,0,WeatherHawk,2013-06-06 08:56:00,
2013-06-06 01:57:00,79.7,43.7,29.71,ESE,122,3.0,4.0,28,0.00,,,0.00,1,WeatherHawk,2013-06-06 08:57:00,
2013-06-06 01:58:00,79.7,43.7,29.71,ESE,116,2.0,4.0,28,0.00,,,0.00,0,WeatherHawk,2013-06-06 08:58:00,
2013-06-06 02:00:00,79.2,44.1,29.71,ESE,118,2.0,4.0,29,0.00,,,0.00,0,WeatherHawk,2013-06-06 09:00:00,
2013-06-06 02:01:00,78.8,43.8,29.71,East,93,2.0,4.0,29,0.00,,,0.00,0,WeatherHawk,2013-06-06 09:01:00,
2013-06-06 02:06:00,78.1,44.1,29.71,SE,136,2.0,4.0,30,0.00,,,0.00,0,WeatherHawk,2013-06-06 09:06:00,
2013-06-06 02:07:00,78.3,42.5,29.71,SE,141,3.0,3.0,28,0.00,,,0.00,0,WeatherHawk,2013-06-06 09:07:00,
2013-06-06 02:12:00,79.3,44.3,29.71,SSE,150,4.0,4.0,29,0.00,,,0.00,0,WeatherHawk,2013-06-06 09:12:00,
2013-06-06 02:13:00,79.2,44.1,29.71,SSE,155,4.0,4.0,29,0.00,,,0.00,0,WeatherHawk,2013-06-06 09:13:00,
2013-06-06 02:15:00,78.8,44.7,29.71,SSE,153,4.0,4.0,30,0.00,,,0.00,1,WeatherHawk,2013-06-06 09:15:00,
2013-06-06 02:17:00,78.3,44.3,29.71,SSE,151,4.0,4.0,30,0.00,,,0.00,0,WeatherHawk,2013-06-06 09:17:00,
2013-06-06 02:22:00,77.9,43.9,29.71,SSE,154,4.0,4.0,30,0.00,,,0.00,0,WeatherHawk,2013-06-06 09:22:00,
2013-06-06 02:23:00,77.9,43.9,29.71,SSE,160,4.0,4.0,30,0.00,,,0.00,0,WeatherHawk,2013-06-06 09:23:00,
2013-06-06 02:27:00,77.5,44.5,29.71,SSE,153,4.0,4.0,31,0.00,,,0.00,0,WeatherHawk,2013-06-06 09:27:00,
2013-06-06 02:31:00,77.4,43.5,29.71,SE,146,5.0,5.0,30,0.00,,,0.00,0,WeatherHawk,2013-06-06 09:31:00,
2013-06-06 02:32:00,77.4,43.5,29.71,SSE,151,4.0,5.0,30,0.00,,,0.00,0,WeatherHawk,2013-06-06 09:32:00,
2013-06-06 02:34:00,77.4,43.5,29.71,SSE,154,3.0,5.0,30,0.00,,,0.00,0,WeatherHawk,2013-06-06 09:34:00,
2013-06-06 02:37:00,77.5,42.8,29.71,SSE,152,5.0,5.0,29,0.00,,,0.00,0,WeatherHawk,2013-06-06 09:37:00,
2013-06-06 02:38:00,77.9,42.1,29.71,SSE,156,4.0,5.0,28,0.00,,,0.00,1,WeatherHawk,2013-06-06 09:38:00,
2013-06-06 02:40:00,78.4,42.6,29.71,SSE,153,5.0,5.0,28,0.00,,,0.00,0,WeatherHawk,2013-06-06 09:40:00,
2013-06-06 02:41:00,78.8,42.0,29.71,SSE,154,5.0,5.0,27,0.00,,,0.00,0,WeatherHawk,2013-06-06 09:41:00,
2013-06-06 02:44:00,79.0,42.1,29.71,SSE,151,4.0,5.0,27,0.00,,,0.00,0,WeatherHawk,2013-06-06 09:44:00,
2013-06-06 02:47:00,79.0,42.1,29.71,SSE,157,5.0,5.0,27,0.00,,,0.00,0,WeatherHawk,2013-06-06 09:47:00,
2013-06-06 02:48:00,79.2,41.3,29.71,SSE,155,5.0,0.0,26,0.00,,,0.00,0,WeatherHawk,2013-06-06 09:48:00,
2013-06-06 02:49:00,79.3,41.5,29.71,SSE,158,4.0,5.0,26,0.00,,,0.00,0,WeatherHawk,2013-06-06 09:49:00,
2013-06-06 02:51:00,79.5,41.6,29.70,SSE,151,4.0,5.0,26,0.00,,,0.00,0,WeatherHawk,2013-06-06 09:51:00,
2013-06-06 02:52:00,79.5,41.6,29.70,SSE,151,4.0,-999.0,26,0.00,,,0.00,0,WeatherHawk,2013-06-06 09:52:00,
2013-06-06 02:57:00,79.3,41.5,29.70,SSE,158,5.0,5.0,26,0.00,,,0.00,0,WeatherHawk,2013-06-06 09:57:00,
2013-06-06 03:01:00,79.3,40.4,29.70,SSE,166,5.0,6.0,25,0.00,,,0.00,0,WeatherHawk,2013-06-06 10:01:00,
2013-06-06 03:02:00,79.5,40.6,29.70,SSE,168,4.0,6.0,25,0.00,,,0.00,0,WeatherHawk,2013-06-06 10:02:00,
2013-06-06 03:05:00,79.5,40.6,29.70,SSE,168,5.0,6.0,25,0.00,,,0.00,0,WeatherHawk,2013-06-06 10:05:00,
2013-06-06 03:07:00,79.9,40.9,29.70,South,170,5.0,0.0,25,0.00,,,0.00,0,WeatherHawk,2013-06-06 10:07:00,
2013-06-06 03:09:00,79.9,38.8,29.70,SSE,162,6.0,6.0,23,0.00,,,0.00,0,WeatherHawk,2013-06-06 10:09:00,
2013-06-06 03:10:00,80.2,40.1,29.70,SSE,163,5.0,6.0,24,0.00,,,0.00,1,WeatherHawk,2013-06-06 10:10:00,
2013-06-06 03:11:00,80.2,41.2,29.70,SSE,162,4.0,6.0,25,0.00,,,0.00,0,WeatherHawk,2013-06-06 10:11:00,
2013-06-06 03:12:00,80.2,41.2,29.70,SSE,162,4.0,-999.0,25,0.00,,,0.00,0,WeatherHawk,2013-06-06 10:12:00,
2013-06-06 03:13:00,79.9,40.9,29.71,SSE,162,4.0,6.0,25,0.00,,,0.00,0,WeatherHawk,2013-06-06 10:13:00,
2013-06-06 03:17:00,79.3,40.4,29.71,SSE,164,4.0,6.0,25,0.00,,,0.00,0,WeatherHawk,2013-06-06 10:17:00,
2013-06-06 03:18:00,79.3,39.4,29.71,SSE,151,4.0,6.0,24,0.00,,,0.00,0,WeatherHawk,2013-06-06 10:18:00,
2013-06-06 03:19:00,79.9,39.8,29.71,SSE,156,4.0,6.0,24,0.00,,,0.00,0,WeatherHawk,2013-06-06 10:19:00,
2013-06-06 03:22:00,80.1,40.0,29.71,SSE,151,4.0,6.0,24,0.00,,,0.00,0,WeatherHawk,2013-06-06 10:22:00,
2013-06-06 03:24:00,79.9,39.8,29.71,SSE,157,3.0,6.0,24,0.00,,,0.00,0,WeatherHawk,2013-06-06 10:24:00,
2013-06-06 03:25:00,79.9,39.8,29.71,SSE,150,3.0,6.0,24,0.00,,,0.00,0,WeatherHawk,2013-06-06 10:25:00,
2013-06-06 03:26:00,79.9,39.8,29.71,SE,146,4.0,6.0,24,0.00,,,0.00,0,WeatherHawk,2013-06-06 10:26:00,
2013-06-06 03:27:00,79.9,39.8,29.71,SE,146,4.0,-999.0,24,0.00,,,0.00,0,WeatherHawk,2013-06-06 10:27:00,
2013-06-06 03:30:00,79.7,39.7,29.71,SE,143,4.0,5.0,24,0.00,,,0.00,0,WeatherHawk,2013-06-06 10:30:00,
2013-06-06 03:32:00,79.7,38.6,29.71,SSE,147,4.0,-999.0,23,0.00,,,0.00,0,WeatherHawk,2013-06-06 10:32:00,
2013-06-06 03:33:00,79.9,39.8,29.71,SE,138,3.0,5.0,24,0.00,,,0.00,0,WeatherHawk,2013-06-06 10:33:00,
2013-06-06 03:34:00,79.9,39.8,29.71,SSE,151,4.0,5.0,24,0.00,,,0.00,0,WeatherHawk,2013-06-06 10:34:00,
2013-06-06 03:37:00,79.9,39.8,29.71,SSE,163,4.0,5.0,24,0.00,,,0.00,0,WeatherHawk,2013-06-06 10:37:00,
2013-06-06 03:39:00,79.7,39.7,29.70,SSE,162,5.0,5.0,24,0.00,,,0.00,0,WeatherHawk,2013-06-06 10:39:00,
2013-06-06 03:40:00,79.7,39.7,29.70,SSE,161,6.0,6.0,24,0.00,,,0.00,0,WeatherHawk,2013-06-06 10:40:00,
2013-06-06 03:42:00,79.9,39.8,29.70,SSE,162,5.0,5.0,24,0.00,,,0.00,0,WeatherHawk,2013-06-06 10:42:00,
2013-06-06 03:43:00,79.9,38.8,29.70,SSE,153,5.0,5.0,23,0.00,,,0.00,1,WeatherHawk,2013-06-06 10:43:00,
2013-06-06 03:46:00,79.5,39.5,29.71,SSE,153,4.0,5.0,24,0.00,,,0.00,0,WeatherHawk,2013-06-06 10:46:00,
2013-06-06 03:47:00,79.5,39.5,29.71,SSE,153,4.0,5.0,24,0.00,,,0.00,0,WeatherHawk,2013-06-06 10:47:00,
2013-06-06 03:51:00,78.6,38.8,29.71,SSE,150,4.0,6.0,24,0.00,,,0.00,0,WeatherHawk,2013-06-06 10:51:00,
2013-06-06 03:52:00,78.6,39.8,29.71,SSE,150,5.0,6.0,25,0.00,,,0.00,0,WeatherHawk,2013-06-06 10:52:00,
2013-06-06 03:57:00,78.1,39.4,29.71,SSE,152,5.0,6.0,25,0.00,,,0.00,0,WeatherHawk,2013-06-06 10:57:00,
2013-06-06 04:02:00,77.9,39.2,29.71,SSE,156,6.0,6.0,25,0.00,,,0.00,0,WeatherHawk,2013-06-06 11:02:00,
2013-06-06 04:03:00,77.7,40.1,29.71,SSE,153,6.0,6.0,26,0.00,,,0.00,0,WeatherHawk,2013-06-06 11:03:00,
2013-06-06 04:04:00,77.7,40.1,29.71,SSE,154,5.0,6.0,26,0.00,,,0.00,0,WeatherHawk,2013-06-06 11:04:00,
2013-06-06 04:07:00,77.5,39.9,29.70,SE,144,6.0,6.0,26,0.00,,,0.00,0,WeatherHawk,2013-06-06 11:07:00,
2013-06-06 04:09:00,77.5,39.9,29.71,SSE,150,5.0,6.0,26,0.00,,,0.00,0,WeatherHawk,2013-06-06 11:09:00,
2013-06-06 04:12:00,77.2,40.6,29.70,SSE,156,5.0,6.0,27,0.00,,,0.00,0,WeatherHawk,2013-06-06 11:12:00,
2013-06-06 04:17:00,77.0,41.4,29.70,SSE,151,7.0,7.0,28,0.00,,,0.00,0,WeatherHawk,2013-06-06 11:17:00,
2013-06-06 04:19:00,76.8,41.2,29.71,SSE,165,6.0,6.0,28,0.00,,,0.00,0,WeatherHawk,2013-06-06 11:19:00,
2013-06-06 04:22:00,76.5,41.8,29.71,SSE,154,5.0,6.0,29,0.00,,,0.00,0,WeatherHawk,2013-06-06 11:22:00,
2013-06-06 04:23:00,76.5,41.8,29.71,SSE,151,5.0,6.0,29,0.00,,,0.00,0,WeatherHawk,2013-06-06 11:23:00,
2013-06-06 04:25:00,76.5,41.8,29.71,SE,138,5.0,6.0,29,0.00,,,0.00,0,WeatherHawk,2013-06-06 11:25:00,
2013-06-06 04:27:00,76.3,41.7,29.71,SE,144,6.0,6.0,29,0.00,,,0.00,0,WeatherHawk,2013-06-06 11:27:00,
2013-06-06 04:29:00,76.3,42.6,29.71,SSE,151,5.0,7.0,30,0.00,,,0.00,0,WeatherHawk,2013-06-06 11:29:00,
2013-06-06 04:32:00,76.3,42.6,29.71,SSE,156,6.0,7.0,30,0.00,,,0.00,0,WeatherHawk,2013-06-06 11:32:00,
2013-06-06 04:35:00,76.3,42.6,29.71,SSE,150,6.0,7.0,30,0.00,,,0.00,0,WeatherHawk,2013-06-06 11:35:00,
2013-06-06 04:36:00,76.3,42.6,29.71,SSE,147,7.0,7.0,30,0.00,,,0.00,0,WeatherHawk,2013-06-06 11:36:00,
2013-06-06 04:37:00,76.3,42.6,29.71,SE,145,6.0,-999.0,30,0.00,,,0.00,0,WeatherHawk,2013-06-06 11:37:00,
2013-06-06 04:41:00,75.9,43.1,29.71,SE,145,5.0,7.0,31,0.00,,,0.00,0,WeatherHawk,2013-06-06 11:41:00,
2013-06-06 04:43:00,75.9,43.1,29.71,SE,144,5.0,7.0,31,0.00,,,0.00,0,WeatherHawk,2013-06-06 11:43:00,
2013-06-06 04:47:00,75.9,43.1,29.71,SE,146,6.0,7.0,31,0.00,,,0.00,0,WeatherHawk,2013-06-06 11:47:00,
2013-06-06 04:48:00,75.9,43.1,29.71,SSE,157,6.0,0.0,31,0.00,,,0.00,0,WeatherHawk,2013-06-06 11:48:00,
2013-06-06 04:52:00,75.7,43.8,29.71,SSE,150,5.0,6.0,32,0.00,,,0.00,0,WeatherHawk,2013-06-06 11:52:00,
2013-06-06 04:53:00,75.7,43.8,29.71,SE,145,6.0,6.0,32,0.00,,,0.00,0,WeatherHawk,2013-06-06 11:53:00,
2013-06-06 04:54:00,75.7,43.8,29.71,SE,146,6.0,6.0,32,0.00,,,0.00,1,WeatherHawk,2013-06-06 11:54:00,
2013-06-06 04:55:00,75.7,43.8,29.71,SE,145,6.0,6.0,32,0.00,,,0.00,0,WeatherHawk,2013-06-06 11:55:00,
2013-06-06 04:59:00,75.6,43.6,29.71,SSE,150,5.0,7.0,32,0.00,,,0.00,0,WeatherHawk,2013-06-06 11:59:00,
2013-06-06 05:00:00,75.6,43.6,29.71,SSE,157,4.0,7.0,32,0.00,,,0.00,0,WeatherHawk,2013-06-06 12:00:00,
2013-06-06 05:02:00,75.6,43.6,29.71,SSE,158,4.0,-999.0,32,0.00,,,0.00,0,WeatherHawk,2013-06-06 12:02:00,
2013-06-06 05:03:00,75.4,43.5,29.71,SSE,151,5.0,7.0,32,0.00,,,0.00,0,WeatherHawk,2013-06-06 12:03:00,
2013-06-06 05:07:00,75.6,43.6,29.71,SSE,158,5.0,7.0,32,0.00,,,0.00,0,WeatherHawk,2013-06-06 12:07:00,
2013-06-06 05:08:00,75.6,43.6,29.71,SSE,147,5.0,6.0,32,0.00,,,0.00,0,WeatherHawk,2013-06-06 12:08:00,
2013-06-06 05:09:00,75.6,43.6,29.71,SE,146,5.0,6.0,32,0.00,,,0.00,0,WeatherHawk,2013-06-06 12:09:00,
2013-06-06 05:12:00,75.6,43.6,29.71,SSE,150,6.0,6.0,32,0.00,,,0.00,0,WeatherHawk,2013-06-06 12:12:00,
2013-06-06 05:15:00,75.4,43.5,29.71,SSE,151,6.0,6.0,32,0.00,,,0.00,1,WeatherHawk,2013-06-06 12:15:00,
2013-06-06 05:16:00,75.4,44.3,29.71,SSE,152,6.0,6.0,33,0.00,,,0.00,0,WeatherHawk,2013-06-06 12:16:00,
2013-06-06 05:18:00,75.4,44.3,29.71,SSE,148,5.0,6.0,33,0.00,,,0.00,1,WeatherHawk,2013-06-06 12:18:00,
2013-06-06 05:22:00,75.2,44.1,29.71,SSE,155,5.0,6.0,33,0.00,,,0.00,2,WeatherHawk,2013-06-06 12:22:00,
2013-06-06 05:23:00,75.2,44.1,29.71,SSE,151,6.0,6.0,33,0.00,,,0.00,2,WeatherHawk,2013-06-06 12:23:00,
2013-06-06 05:25:00,75.2,44.1,29.71,SE,146,5.0,6.0,33,0.00,,,0.00,2,WeatherHawk,2013-06-06 12:25:00,
2013-06-06 05:27:00,75.0,44.7,29.71,SSE,147,6.0,0.0,34,0.00,,,0.00,2,WeatherHawk,2013-06-06 12:27:00,
2013-06-06 05:29:00,75.0,45.5,29.71,SSE,150,6.0,6.0,35,0.00,,,0.00,5,WeatherHawk,2013-06-06 12:29:00,
2013-06-06 05:31:00,74.8,45.3,29.71,SSE,147,7.0,7.0,35,0.00,,,0.00,5,WeatherHawk,2013-06-06 12:31:00,
2013-06-06 05:32:00,74.8,45.3,29.71,SSE,150,5.0,-999.0,35,0.00,,,0.00,6,WeatherHawk,2013-06-06 12:32:00,
2013-06-06 05:33:00,74.8,45.3,29.71,SSE,153,5.0,6.0,35,0.00,,,0.00,6,WeatherHawk,2013-06-06 12:33:00,
2013-06-06 05:34:00,74.8,45.3,29.71,SSE,154,5.0,6.0,35,0.00,,,0.00,7,WeatherHawk,2013-06-06 12:34:00,
2013-06-06 05:36:00,74.7,45.9,29.71,SSE,151,5.0,6.0,36,0.00,,,0.00,10,WeatherHawk,2013-06-06 12:36:00,
2013-06-06 05:38:00,74.7,45.9,29.71,SSE,159,5.0,7.0,36,0.00,,,0.00,13,WeatherHawk,2013-06-06 12:38:00,
2013-06-06 05:40:00,74.5,45.8,29.71,SSE,163,6.0,7.0,36,0.00,,,0.00,14,WeatherHawk,2013-06-06 12:40:00,
2013-06-06 05:42:00,74.7,45.9,29.71,SSE,160,6.0,-999.0,36,0.00,,,0.00,18,WeatherHawk,2013-06-06 12:42:00,
2013-06-06 05:43:00,74.8,46.1,29.71,SSE,157,5.0,7.0,36,0.00,,,0.00,20,WeatherHawk,2013-06-06 12:43:00,
2013-06-06 05:47:00,75.0,46.2,29.72,SSE,150,6.0,7.0,36,0.00,,,0.00,30,WeatherHawk,2013-06-06 12:47:00,
2013-06-06 05:48:00,75.0,46.2,29.72,SSE,147,6.0,6.0,36,0.00,,,0.00,32,WeatherHawk,2013-06-06 12:48:00,
2013-06-06 05:49:00,75.0,46.2,29.72,SE,143,6.0,6.0,36,0.00,,,0.00,34,WeatherHawk,2013-06-06 12:49:00,
2013-06-06 05:53:00,75.2,46.4,29.72,SSE,150,6.0,6.0,36,0.00,,,0.00,43,WeatherHawk,2013-06-06 12:53:00,
2013-06-06 05:55:00,75.2,46.4,29.72,SE,146,6.0,6.0,36,0.00,,,0.00,47,WeatherHawk,2013-06-06 12:55:00,
2013-06-06 05:57:00,75.0,46.2,29.72,SE,144,6.0,6.0,36,0.00,,,0.00,53,WeatherHawk,2013-06-06 12:57:00,
2013-06-06 06:00:00,74.8,46.1,29.72,SSE,155,6.0,7.0,36,0.00,,,0.00,62,WeatherHawk,2013-06-06 13:00:00,
2013-06-06 06:02:00,75.0,46.2,29.72,SSE,156,6.0,7.0,36,0.00,,,0.00,67,WeatherHawk,2013-06-06 13:02:00,
2013-06-06 06:05:00,75.2,45.7,29.72,SSE,152,6.0,7.0,35,0.00,,,0.00,76,WeatherHawk,2013-06-06 13:05:00,
2013-06-06 06:07:00,75.2,45.7,29.72,SSE,151,6.0,-999.0,35,0.00,,,0.00,82,WeatherHawk,2013-06-06 13:07:00,
2013-06-06 06:09:00,75.2,45.7,29.72,SSE,147,5.0,7.0,35,0.00,,,0.00,87,WeatherHawk,2013-06-06 13:09:00,
2013-06-06 06:10:00,75.2,45.7,29.72,SSE,152,5.0,7.0,35,0.00,,,0.00,91,WeatherHawk,2013-06-06 13:10:00,
2013-06-06 06:12:00,75.2,45.7,29.72,SSE,153,5.0,-999.0,35,0.00,,,0.00,96,WeatherHawk,2013-06-06 13:12:00,
2013-06-06 06:13:00,75.2,45.7,29.72,SSE,148,6.0,7.0,35,0.00,,,0.00,100,WeatherHawk,2013-06-06 13:13:00,
2013-06-06 06:14:00,75.2,45.7,29.72,SSE,153,6.0,7.0,35,0.00,,,0.00,102,WeatherHawk,2013-06-06 13:14:00,
2013-06-06 06:18:00,75.4,45.8,29.72,SSE,154,6.0,7.0,35,0.00,,,0.00,116,WeatherHawk,2013-06-06 13:18:00,
2013-06-06 06:19:00,75.4,45.8,29.72,SSE,147,5.0,7.0,35,0.00,,,0.00,120,WeatherHawk,2013-06-06 13:19:00,
2013-06-06 06:22:00,75.6,46.0,29.72,SSE,156,6.0,7.0,35,0.00,,,0.00,128,WeatherHawk,2013-06-06 13:22:00,
2013-06-06 06:24:00,75.6,46.0,29.72,SSE,153,5.0,7.0,35,0.00,,,0.00,135,WeatherHawk,2013-06-06 13:24:00,
2013-06-06 06:25:00,75.6,46.0,29.72,SSE,153,6.0,7.0,35,0.00,,,0.00,137,WeatherHawk,2013-06-06 13:25:00,
2013-06-06 06:28:00,75.7,46.9,29.73,SSE,154,6.0,0.0,36,0.00,,,0.00,146,WeatherHawk,2013-06-06 13:28:00,
2013-06-06 06:31:00,75.9,47.0,29.73,SSE,152,7.0,7.0,36,0.00,,,0.00,158,WeatherHawk,2013-06-06 13:31:00,
2013-06-06 06:32:00,75.9,47.0,29.73,SSE,151,6.0,6.0,36,0.00,,,0.00,159,WeatherHawk,2013-06-06 13:32:00,
2013-06-06 06:37:00,76.1,47.9,29.73,SSE,154,7.0,7.0,37,0.00,,,0.00,178,WeatherHawk,2013-06-06 13:37:00,
2013-06-06 06:39:00,76.3,48.1,29.73,SSE,152,7.0,8.0,37,0.00,,,0.00,185,WeatherHawk,2013-06-06 13:39:00,
2013-06-06 06:40:00,76.5,48.2,29.73,SSE,154,7.0,8.0,37,0.00,,,0.00,189,WeatherHawk,2013-06-06 13:40:00,
2013-06-06 06:41:00,76.5,48.2,29.73,SSE,155,7.0,8.0,37,0.00,,,0.00,191,WeatherHawk,2013-06-06 13:41:00,
2013-06-06 06:42:00,76.5,48.2,29.73,SSE,160,7.0,8.0,37,0.00,,,0.00,195,WeatherHawk,2013-06-06 13:42:00,
2013-06-06 06:45:00,76.6,49.1,29.73,SSE,162,7.0,8.0,38,0.00,,,0.00,206,WeatherHawk,2013-06-06 13:45:00,
2013-06-06 06:46:00,76.6,49.1,29.73,SSE,157,6.0,8.0,38,0.00,,,0.00,208,WeatherHawk,2013-06-06 13:46:00,
2013-06-06 06:47:00,76.6,49.1,29.73,SSE,152,7.0,8.0,38,0.00,,,0.00,212,WeatherHawk,2013-06-06 13:47:00,
2013-06-06 06:48:00,76.8,49.3,29.73,SSE,152,8.0,9.0,38,0.00,,,0.00,217,WeatherHawk,2013-06-06 13:48:00,
2013-06-06 06:50:00,77.0,49.4,29.73,SSE,164,8.0,9.0,38,0.00,,,0.00,225,WeatherHawk,2013-06-06 13:50:00,
2013-06-06 06:52:00,77.0,49.4,29.73,SSE,156,8.0,9.0,38,0.00,,,0.00,231,WeatherHawk,2013-06-06 13:52:00,
2013-06-06 06:57:00,77.4,50.4,29.73,SSE,161,6.0,9.0,39,0.00,,,0.00,249,WeatherHawk,2013-06-06 13:57:00,
2013-06-06 06:59:00,77.4,50.4,29.73,SSE,155,9.0,9.0,39,0.00,,,0.00,258,WeatherHawk,2013-06-06 13:59:00,
2013-06-06 07:00:00,77.4,50.4,29.73,SSE,156,8.0,9.0,39,0.00,,,0.00,262,WeatherHawk,2013-06-06 14:00:00,
2013-06-06 07:02:00,77.4,51.1,29.73,SSE,161,7.0,9.0,40,0.00,,,0.00,268,WeatherHawk,2013-06-06 14:02:00,
2013-06-06 07:07:00,77.7,51.5,29.73,SSE,162,9.0,9.0,40,0.00,,,0.00,287,WeatherHawk,2013-06-06 14:07:00,
2013-06-06 07:09:00,77.9,51.6,29.73,SSE,155,7.0,9.0,40,0.00,,,0.00,298,WeatherHawk,2013-06-06 14:09:00,
2013-06-06 07:11:00,78.1,51.8,29.73,SSE,161,6.0,9.0,40,0.00,,,0.00,305,WeatherHawk,2013-06-06 14:11:00,
2013-06-06 07:12:00,78.1,51.8,29.73,SSE,160,9.0,-999.0,40,0.00,,,0.00,306,WeatherHawk,2013-06-06 14:12:00,
2013-06-06 07:13:00,78.3,51.9,29.73,SSE,160,8.0,9.0,40,0.00,,,0.00,312,WeatherHawk,2013-06-06 14:13:00,
2013-06-06 07:16:00,78.6,52.3,29.73,SSE,166,7.0,9.0,40,0.00,,,0.00,324,WeatherHawk,2013-06-06 14:16:00,
2013-06-06 07:19:00,78.8,51.7,29.73,South,170,9.0,10.0,39,0.00,,,0.00,333,WeatherHawk,2013-06-06 14:19:00,
2013-06-06 07:22:00,79.0,51.9,29.73,SSE,158,9.0,10.0,39,0.00,,,0.00,345,WeatherHawk,2013-06-06 14:22:00,
2013-06-06 07:25:00,79.2,52.0,29.74,SSE,158,7.0,10.0,39,0.00,,,0.00,354,WeatherHawk,2013-06-06 14:25:00,
2013-06-06 07:27:00,79.5,52.4,29.74,SSE,162,7.0,10.0,39,0.00,,,0.00,358,WeatherHawk,2013-06-06 14:27:00,
2013-06-06 07:28:00,79.7,51.8,29.74,SSE,162,7.0,9.0,38,0.00,,,0.00,367,WeatherHawk,2013-06-06 14:28:00,
2013-06-06 07:31:00,80.1,52.1,29.74,SSE,164,6.0,9.0,38,0.00,,,0.00,379,WeatherHawk,2013-06-06 14:31:00,
2013-06-06 07:32:00,80.1,52.1,29.74,South,170,9.0,9.0,38,0.00,,,0.00,381,WeatherHawk,2013-06-06 14:32:00,
2013-06-06 07:33:00,80.2,51.6,29.74,SSE,168,9.0,9.0,37,0.00,,,0.00,385,WeatherHawk,2013-06-06 14:33:00,
2013-06-06 07:34:00,80.2,51.6,29.74,SSE,156,9.0,9.0,37,0.00,,,0.00,388,WeatherHawk,2013-06-06 14:34:00,
2013-06-06 07:37:00,80.4,51.7,29.74,South,173,8.0,-999.0,37,0.00,,,0.00,397,WeatherHawk,2013-06-06 14:37:00,
2013-06-06 07:39:00,80.4,51.7,29.74,SSE,165,9.0,9.0,37,0.00,,,0.00,408,WeatherHawk,2013-06-06 14:39:00,
2013-06-06 07:41:00,80.6,51.9,29.74,South,170,9.0,9.0,37,0.00,,,0.00,417,WeatherHawk,2013-06-06 14:41:00,
2013-06-06 07:42:00,80.6,51.2,29.74,SSE,162,8.0,9.0,36,0.00,,,0.00,420,WeatherHawk,2013-06-06 14:42:00,
2013-06-06 07:43:00,80.6,51.2,29.74,South,173,8.0,9.0,36,0.00,,,0.00,423,WeatherHawk,2013-06-06 14:43:00,
2013-06-06 07:47:00,81.1,51.6,29.74,SSE,155,8.0,9.0,36,0.00,,,0.00,438,WeatherHawk,2013-06-06 14:47:00,
2013-06-06 07:48:00,81.1,51.6,29.74,SSE,160,8.0,10.0,36,0.00,,,0.00,441,WeatherHawk,2013-06-06 14:48:00,
2013-06-06 07:50:00,81.1,50.9,29.74,SSE,165,7.0,10.0,35,0.00,,,0.00,450,WeatherHawk,2013-06-06 14:50:00,
2013-06-06 07:52:00,81.5,50.4,29.74,SSE,162,7.0,-999.0,34,0.00,,,0.00,457,WeatherHawk,2013-06-06 14:52:00,
2013-06-06 07:53:00,81.5,50.4,29.74,SSE,165,8.0,10.0,34,0.00,,,0.00,460,WeatherHawk,2013-06-06 14:53:00,
2013-06-06 07:55:00,82.0,51.7,29.74,SE,145,7.0,10.0,35,0.00,,,0.00,471,WeatherHawk,2013-06-06 14:55:00,
2013-06-06 07:56:00,82.0,51.7,29.74,SSE,156,7.0,10.0,35,0.00,,,0.00,472,WeatherHawk,2013-06-06 14:56:00,
2013-06-06 07:57:00,82.0,51.7,29.74,SSE,156,7.0,-999.0,35,0.00,,,0.00,472,WeatherHawk,2013-06-06 14:57:00,
2013-06-06 07:59:00,82.4,52.0,29.74,SSE,153,6.0,10.0,35,0.00,,,0.00,484,WeatherHawk,2013-06-06 14:59:00,
2013-06-06 08:01:00,82.6,51.3,29.74,SSE,166,6.0,10.0,34,0.00,,,0.00,493,WeatherHawk,2013-06-06 15:01:00,
2013-06-06 08:02:00,82.6,51.3,29.74,SSE,166,6.0,-999.0,34,0.00,,,0.00,493,WeatherHawk,2013-06-06 15:02:00,
2013-06-06 08:03:00,82.6,50.5,29.74,South,172,7.0,10.0,33,0.00,,,0.00,495,WeatherHawk,2013-06-06 15:03:00,
2013-06-06 08:07:00,82.9,49.2,29.75,South,183,10.0,0.0,31,0.00,,,0.00,513,WeatherHawk,2013-06-06 15:07:00,
2013-06-06 08:08:00,82.9,49.2,29.75,South,175,9.0,10.0,31,0.00,,,0.00,520,WeatherHawk,2013-06-06 15:08:00,
2013-06-06 08:09:00,82.9,49.2,29.75,South,172,9.0,10.0,31,0.00,,,0.00,519,WeatherHawk,2013-06-06 15:09:00,
2013-06-06 08:11:00,83.1,50.2,29.75,South,185,8.0,10.0,32,0.00,,,0.00,527,WeatherHawk,2013-06-06 15:11:00,
2013-06-06 08:15:00,83.7,50.6,29.75,South,170,8.0,10.0,32,0.00,,,0.00,542,WeatherHawk,2013-06-06 15:15:00,
2013-06-06 08:17:00,84.0,50.1,29.75,South,184,9.0,10.0,31,0.00,,,0.00,548,WeatherHawk,2013-06-06 15:17:00,
2013-06-06 08:19:00,84.2,50.3,29.75,SSE,163,9.0,11.0,31,0.00,,,0.00,557,WeatherHawk,2013-06-06 15:19:00,
2013-06-06 08:21:00,84.7,48.9,29.75,South,187,9.0,11.0,29,0.00,,,0.00,566,WeatherHawk,2013-06-06 15:21:00,
2013-06-06 08:22:00,84.7,48.9,29.75,South,183,9.0,11.0,29,0.00,,,0.00,566,WeatherHawk,2013-06-06 15:22:00,
2013-06-06 08:24:00,85.1,49.2,29.75,South,184,9.0,11.0,29,0.00,,,0.00,576,WeatherHawk,2013-06-06 15:24:00,
2013-06-06 08:26:00,85.1,49.2,29.75,South,183,8.0,11.0,29,0.00,,,0.00,583,WeatherHawk,2013-06-06 15:26:00,
2013-06-06 08:27:00,85.3,49.4,29.75,South,178,9.0,11.0,29,0.00,,,0.00,587,WeatherHawk,2013-06-06 15:27:00,
2013-06-06 08:32:00,85.5,48.6,29.75,South,181,9.0,10.0,28,0.00,,,0.00,601,WeatherHawk,2013-06-06 15:32:00,
2013-06-06 08:35:00,85.8,48.9,29.75,SSW,197,6.0,10.0,28,0.00,,,0.00,615,WeatherHawk,2013-06-06 15:35:00,
2013-06-06 08:37:00,86.0,49.1,29.75,SSW,195,7.0,-999.0,28,0.00,,,0.00,612,WeatherHawk,2013-06-06 15:37:00,
2013-06-06 08:38:00,86.2,49.2,29.76,South,170,6.0,10.0,28,0.00,,,0.00,627,WeatherHawk,2013-06-06 15:38:00,
2013-06-06 08:39:00,86.4,49.4,29.76,South,180,7.0,10.0,28,0.00,,,0.00,632,WeatherHawk,2013-06-06 15:39:00,
2013-06-06 08:44:00,86.9,48.9,29.76,SSE,163,4.0,10.0,27,0.00,,,0.00,646,WeatherHawk,2013-06-06 15:44:00,
2013-06-06 08:45:00,87.1,48.0,29.76,SSW,203,6.0,10.0,26,0.00,,,0.00,652,WeatherHawk,2013-06-06 15:45:00,
2013-06-06 08:47:00,87.1,48.0,29.76,SSW,208,4.0,10.0,26,0.00,,,0.00,656,WeatherHawk,2013-06-06 15:47:00,
2013-06-06 08:49:00,87.4,47.3,29.76,SSW,203,5.0,7.0,25,0.00,,,0.00,664,WeatherHawk,2013-06-06 15:49:00,
2013-06-06 08:52:00,87.4,47.3,29.76,SW,228,6.0,7.0,25,0.00,,,0.00,670,WeatherHawk,2013-06-06 15:52:00,
2013-06-06 08:54:00,87.3,47.1,29.76,SW,223,6.0,7.0,25,0.00,,,0.00,684,WeatherHawk,2013-06-06 15:54:00,
2013-06-06 08:57:00,87.6,46.3,29.76,SSW,211,5.0,0.0,24,0.00,,,0.00,691,WeatherHawk,2013-06-06 15:57:00,
2013-06-06 08:58:00,87.6,46.3,29.76,SW,223,4.0,6.0,24,0.00,,,0.00,694,WeatherHawk,2013-06-06 15:58:00,
2013-06-06 09:02:00,88.0,46.6,29.76,SSW,194,4.0,-999.0,24,0.00,,,0.00,708,WeatherHawk,2013-06-06 16:02:00,
2013-06-06 09:05:00,88.2,46.8,29.76,South,182,4.0,6.0,24,0.00,,,0.00,720,WeatherHawk,2013-06-06 16:05:00,
2013-06-06 09:07:00,88.3,46.9,29.76,SSE,165,2.0,6.0,24,0.00,,,0.00,723,WeatherHawk,2013-06-06 16:07:00,
2013-06-06 09:08:00,88.5,47.1,29.76,South,181,4.0,6.0,24,0.00,,,0.00,727,WeatherHawk,2013-06-06 16:08:00,
2013-06-06 09:11:00,88.5,46.0,29.76,SSE,156,3.0,6.0,23,0.00,,,0.00,738,WeatherHawk,2013-06-06 16:11:00,
2013-06-06 09:12:00,88.7,46.1,29.76,SSE,161,2.0,6.0,23,0.00,,,0.00,742,WeatherHawk,2013-06-06 16:12:00,
2013-06-06 09:16:00,89.2,47.7,29.76,SW,231,4.0,6.0,24,0.00,,,0.00,753,WeatherHawk,2013-06-06 16:16:00,
2013-06-06 09:17:00,89.2,47.7,29.76,SW,219,2.0,6.0,24,0.00,,,0.00,755,WeatherHawk,2013-06-06 16:17:00,
2013-06-06 09:22:00,89.4,46.7,29.76,SSW,202,9.0,-999.0,23,0.00,,,0.00,772,WeatherHawk,2013-06-06 16:22:00,
2013-06-06 09:27:00,89.8,47.0,29.76,South,175,3.0,6.0,23,0.00,,,0.00,787,WeatherHawk,2013-06-06 16:27:00,
2013-06-06 09:30:00,90.3,46.3,29.76,WSW,237,8.0,9.0,22,0.00,,,0.00,799,WeatherHawk,2013-06-06 16:30:00,
2013-06-06 09:31:00,90.3,46.3,29.76,WSW,247,6.0,9.0,22,0.00,,,0.00,800,WeatherHawk,2013-06-06 16:31:00,
2013-06-06 09:32:00,90.3,46.3,29.76,WSW,247,6.0,-999.0,22,0.00,,,0.00,800,WeatherHawk,2013-06-06 16:32:00,
2013-06-06 09:36:00,90.1,47.3,29.76,SW,217,5.0,9.0,23,0.00,,,0.00,816,WeatherHawk,2013-06-06 16:36:00,
2013-06-06 09:37:00,90.1,47.3,29.76,SSW,206,3.0,9.0,23,0.00,,,0.00,818,WeatherHawk,2013-06-06 16:37:00,
2013-06-06 09:40:00,90.3,46.3,29.76,SSW,198,3.0,8.0,22,0.00,,,0.00,832,WeatherHawk,2013-06-06 16:40:00,
2013-06-06 09:42:00,90.3,46.3,29.76,WSW,242,1.0,8.0,22,0.00,,,0.00,833,WeatherHawk,2013-06-06 16:42:00,
2013-06-06 09:44:00,91.0,45.6,29.76,SW,221,2.0,8.0,21,0.00,,,0.00,843,WeatherHawk,2013-06-06 16:44:00,
2013-06-06 09:47:00,91.0,45.6,29.76,SW,221,2.0,-999.0,21,0.00,,,0.00,843,WeatherHawk,2013-06-06 16:47:00,
2013-06-06 09:48:00,91.6,44.8,29.76,SSW,208,3.0,5.0,20,0.00,,,0.00,851,WeatherHawk,2013-06-06 16:48:00,
2013-06-06 09:53:00,92.1,45.2,29.76,WSW,242,2.0,5.0,20,0.00,,,0.00,868,WeatherHawk,2013-06-06 16:53:00,
2013-06-06 09:54:00,92.3,44.0,29.76,WSW,256,6.0,6.0,19,0.00,,,0.00,869,WeatherHawk,2013-06-06 16:54:00,
2013-06-06 09:55:00,92.3,44.0,29.76,WSW,254,4.0,5.0,19,0.00,,,0.00,872,WeatherHawk,2013-06-06 16:55:00,
2013-06-06 09:56:00,92.1,43.9,29.76,WSW,248,3.0,5.0,19,0.00,,,0.00,875,WeatherHawk,2013-06-06 16:56:00,
2013-06-06 09:57:00,92.1,43.9,29.76,WSW,248,3.0,5.0,19,0.00,,,0.00,875,WeatherHawk,2013-06-06 16:57:00,
2013-06-06 10:00:00,91.9,43.7,29.76,SW,219,3.0,7.0,19,0.00,,,0.00,883,WeatherHawk,2013-06-06 17:00:00,
2013-06-06 10:02:00,92.1,43.9,29.76,SSW,200,2.0,7.0,19,0.00,,,0.00,890,WeatherHawk,2013-06-06 17:02:00,
2013-06-06 10:06:00,92.3,44.0,29.76,NE,43,1.0,7.0,19,0.00,,,0.00,901,WeatherHawk,2013-06-06 17:06:00,
2013-06-06 10:07:00,92.5,44.2,29.75,SW,236,4.0,7.0,19,0.00,,,0.00,901,WeatherHawk,2013-06-06 17:07:00,
2013-06-06 10:08:00,92.8,44.5,29.76,North,349,3.0,6.0,19,0.00,,,0.00,903,WeatherHawk,2013-06-06 17:08:00,
2013-06-06 10:09:00,93.0,43.2,29.76,WNW,296,7.0,7.0,18,0.00,,,0.00,909,WeatherHawk,2013-06-06 17:09:00,
2013-06-06 10:12:00,93.0,43.2,29.76,NNW,345,2.0,6.0,18,0.00,,,0.00,916,WeatherHawk,2013-06-06 17:12:00,
2013-06-06 10:17:00,93.6,45.1,29.76,WSW,253,6.0,6.0,19,0.00,,,0.00,928,WeatherHawk,2013-06-06 17:17:00,
2013-06-06 10:22:00,93.4,43.5,29.76,WSW,238,7.0,9.0,18,0.00,,,0.00,939,WeatherHawk,2013-06-06 17:22:00,
2013-06-06 10:23:00,93.6,43.6,29.75,WSW,247,6.0,9.0,18,0.00,,,0.00,937,WeatherHawk,2013-06-06 17:23:00,
2013-06-06 10:24:00,93.4,43.5,29.75,SSW,204,6.0,9.0,18,0.00,,,0.00,942,WeatherHawk,2013-06-06 17:24:00,
2013-06-06 10:27:00,93.4,43.5,29.75,South,184,2.0,9.0,18,0.00,,,0.00,946,WeatherHawk,2013-06-06 17:27:00,
2013-06-06 10:29:00,94.1,44.1,29.75,WNW,295,1.0,7.0,18,0.00,,,0.00,953,WeatherHawk,2013-06-06 17:29:00,
2013-06-06 10:30:00,94.6,39.8,29.75,NW,316,4.0,7.0,15,0.00,,,0.00,960,WeatherHawk,2013-06-06 17:30:00,
2013-06-06 10:32:00,94.8,41.6,29.75,West,266,6.0,-999.0,16,0.00,,,0.00,963,WeatherHawk,2013-06-06 17:32:00,
2013-06-06 10:35:00,95.0,38.3,29.75,WNW,296,6.0,7.0,14,0.00,,,0.00,974,WeatherHawk,2013-06-06 17:35:00,
2013-06-06 10:36:00,95.0,38.3,29.75,NNW,332,5.0,7.0,14,0.00,,,0.00,979,WeatherHawk,2013-06-06 17:36:00,
2013-06-06 10:37:00,95.0,38.3,29.75,NNW,332,5.0,7.0,14,0.00,,,0.00,979,WeatherHawk,2013-06-06 17:37:00,
2013-06-06 10:39:00,94.8,38.2,29.75,WNW,286,6.0,9.0,14,0.00,,,0.00,984,WeatherHawk,2013-06-06 17:39:00,
2013-06-06 10:42:00,95.0,38.3,29.75,NW,308,6.0,-999.0,14,0.00,,,0.00,983,WeatherHawk,2013-06-06 17:42:00,
2013-06-06 10:46:00,95.2,40.2,29.75,WNW,294,9.0,9.0,15,0.00,,,0.00,999,WeatherHawk,2013-06-06 17:46:00,
2013-06-06 10:47:00,95.2,40.2,29.75,West,280,6.0,9.0,15,0.00,,,0.00,998,WeatherHawk,2013-06-06 17:47:00,
2013-06-06 10:51:00,95.9,37.1,29.76,WNW,300,5.0,9.0,13,0.00,,,0.00,1006,WeatherHawk,2013-06-06 17:51:00,
2013-06-06 10:52:00,96.1,39.1,29.76,West,272,5.0,9.0,14,0.00,,,0.00,1006,WeatherHawk,2013-06-06 17:52:00,
2013-06-06 10:57:00,95.9,40.8,29.75,WNW,283,5.0,9.0,15,0.00,,,0.00,1011,WeatherHawk,2013-06-06 17:57:00,
2013-06-06 11:02:00,95.9,39.0,29.75,WNW,300,3.0,-999.0,14,0.00,,,0.00,1019,WeatherHawk,2013-06-06 18:02:00,
2013-06-06 11:07:00,95.9,39.0,29.75,SW,220,5.0,9.0,14,0.00,,,0.00,1033,WeatherHawk,2013-06-06 18:07:00,
2013-06-06 11:11:00,96.4,39.4,29.75,West,269,5.0,7.0,14,0.00,,,0.00,1036,WeatherHawk,2013-06-06 18:11:00,
2013-06-06 11:12:00,96.4,39.4,29.75,West,269,5.0,-999.0,14,0.00,,,0.00,1036,WeatherHawk,2013-06-06 18:12:00,
2013-06-06 11:13:00,96.4,39.4,29.75,WNW,289,4.0,7.0,14,0.00,,,0.00,1044,WeatherHawk,2013-06-06 18:13:00,
2013-06-06 11:15:00,96.6,39.6,29.75,SW,229,7.0,7.0,14,0.00,,,0.00,1043,WeatherHawk,2013-06-06 18:15:00,
2013-06-06 11:17:00,96.6,35.6,29.75,SW,226,6.0,7.0,12,0.00,,,0.00,1044,WeatherHawk,2013-06-06 18:17:00,
2013-06-06 11:21:00,96.8,35.8,29.75,SW,235,8.0,8.0,12,0.00,,,0.00,1052,WeatherHawk,2013-06-06 18:21:00,
2013-06-06 11:22:00,97.0,39.8,29.75,WSW,257,9.0,9.0,14,0.00,,,0.00,1057,WeatherHawk,2013-06-06 18:22:00,
2013-06-06 11:26:00,97.2,36.1,29.75,West,261,6.0,8.0,12,0.00,,,0.00,1074,WeatherHawk,2013-06-06 18:26:00,
2013-06-06 11:27:00,97.2,36.1,29.75,West,261,6.0,8.0,12,0.00,,,0.00,1074,WeatherHawk,2013-06-06 18:27:00,
2013-06-06 11:28:00,97.5,36.3,29.75,SW,235,6.0,9.0,12,0.00,,,0.00,1070,WeatherHawk,2013-06-06 18:28:00,
2013-06-06 11:32:00,97.5,38.4,29.75,WNW,302,7.0,-999.0,13,0.00,,,0.00,1068,WeatherHawk,2013-06-06 18:32:00,
2013-06-06 11:33:00,97.7,36.5,29.75,NW,321,6.0,9.0,12,0.00,,,0.00,1071,WeatherHawk,2013-06-06 18:33:00,
2013-06-06 11:34:00,97.9,36.6,29.75,SW,236,8.0,9.0,12,0.00,,,0.00,1074,WeatherHawk,2013-06-06 18:34:00,
2013-06-06 11:38:00,97.7,38.5,29.75,West,270,8.0,9.0,13,0.00,,,0.00,1079,WeatherHawk,2013-06-06 18:38:00,
2013-06-06 11:40:00,97.7,38.5,29.75,WNW,295,4.0,9.0,13,0.00,,,0.00,1079,WeatherHawk,2013-06-06 18:40:00,
2013-06-06 11:42:00,97.7,38.5,29.75,WSW,255,3.0,-999.0,13,0.00,,,0.00,1080,WeatherHawk,2013-06-06 18:42:00,
2013-06-06 11:44:00,98.2,38.9,29.75,WNW,295,7.0,9.0,13,0.00,,,0.00,1087,WeatherHawk,2013-06-06 18:44:00,
2013-06-06 11:45:00,98.2,38.9,29.75,WSW,249,7.0,9.0,13,0.00,,,0.00,1088,WeatherHawk,2013-06-06 18:45:00,
2013-06-06 11:46:00,98.2,38.9,29.75,WSW,256,6.0,9.0,13,0.00,,,0.00,1086,WeatherHawk,2013-06-06 18:46:00,
2013-06-06 11:47:00,98.2,40.8,29.75,SSW,203,4.0,10.0,14,0.00,,,0.00,1082,WeatherHawk,2013-06-06 18:47:00,
2013-06-06 11:51:00,98.8,41.2,29.75,SSW,210,2.0,10.0,14,0.00,,,0.00,1089,WeatherHawk,2013-06-06 18:51:00,
2013-06-06 11:53:00,99.3,39.8,29.75,SW,231,7.0,10.0,13,0.00,,,0.00,1089,WeatherHawk,2013-06-06 18:53:00,
2013-06-06 11:56:00,99.0,39.5,29.75,WSW,251,6.0,10.0,13,0.00,,,0.00,1099,WeatherHawk,2013-06-06 18:56:00,
2013-06-06 11:59:00,99.0,39.5,29.74,SE,140,3.0,10.0,13,0.00,,,0.00,1087,WeatherHawk,2013-06-06 18:59:00,
2013-06-06 12:01:00,98.8,41.2,29.74,NNW,344,2.0,10.0,14,0.00,,,0.00,1091,WeatherHawk,2013-06-06 19:01:00,
2013-06-06 12:03:00,99.3,41.7,29.74,WNW,296,6.0,10.0,14,0.00,,,0.00,1096,WeatherHawk,2013-06-06 19:03:00,
2013-06-06 12:06:00,99.5,39.9,29.74,WSW,241,3.0,-999.0,13,0.00,,,0.00,1101,WeatherHawk,2013-06-06 19:06:00,
2013-06-06 12:09:00,99.3,39.8,29.74,WSW,238,8.0,9.0,13,0.00,,,0.00,1100,WeatherHawk,2013-06-06 19:09:00,
2013-06-06 12:12:00,99.5,41.8,29.74,SSW,213,9.0,9.0,14,0.00,,,0.00,1099,WeatherHawk,2013-06-06 19:12:00,
2013-06-06 12:18:00,99.5,41.8,29.74,WSW,251,3.0,0.0,14,0.00,,,0.00,1102,WeatherHawk,2013-06-06 19:18:00,
2013-06-06 12:19:00,99.7,40.0,29.74,SW,221,0.0,12.0,13,0.00,,,0.00,1098,WeatherHawk,2013-06-06 19:19:00,
2013-06-06 12:20:00,99.9,42.1,29.74,SW,217,7.0,12.0,14,0.00,,,0.00,1097,WeatherHawk,2013-06-06 19:20:00,
2013-06-06 12:24:00,100.0,40.3,29.74,WSW,242,9.0,12.0,13,0.00,,,0.00,1102,WeatherHawk,2013-06-06 19:24:00,
2013-06-06 12:26:00,100.6,38.7,29.74,SSW,200,7.0,12.0,12,0.00,,,0.00,1105,WeatherHawk,2013-06-06 19:26:00,
2013-06-06 12:31:00,100.2,36.2,29.74,SW,216,10.0,12.0,11,0.00,,,0.00,1104,WeatherHawk,2013-06-06 19:31:00,
2013-06-06 12:32:00,100.6,36.5,29.74,SW,227,6.0,12.0,11,0.00,,,0.00,1105,WeatherHawk,2013-06-06 19:32:00,
2013-06-06 12:35:00,100.9,36.7,29.73,WNW,287,10.0,12.0,11,0.00,,,0.00,1113,WeatherHawk,2013-06-06 19:35:00,
2013-06-06 12:37:00,100.9,34.3,29.73,West,277,6.0,12.0,10,0.00,,,0.00,1106,WeatherHawk,2013-06-06 19:37:00,
2013-06-06 12:39:00,100.8,34.2,29.73,WNW,286,7.0,12.0,10,0.00,,,0.00,1111,WeatherHawk,2013-06-06 19:39:00,
2013-06-06 12:42:00,100.9,31.7,29.73,WNW,295,7.0,12.0,9,0.00,,,0.00,1108,WeatherHawk,2013-06-06 19:42:00,
2013-06-06 12:43:00,101.3,37.0,29.73,WNW,299,5.0,12.0,11,0.00,,,0.00,1104,WeatherHawk,2013-06-06 19:43:00,
2013-06-06 12:47:00,101.5,37.1,29.73,WNW,300,8.0,11.0,11,0.00,,,0.00,1111,WeatherHawk,2013-06-06 19:47:00,
2013-06-06 12:51:00,101.1,39.1,29.73,SSW,208,9.0,11.0,12,0.00,,,0.00,1099,WeatherHawk,2013-06-06 19:51:00,
2013-06-06 12:53:00,101.3,39.2,29.73,SSW,194,6.0,11.0,12,0.00,,,0.00,1103,WeatherHawk,2013-06-06 19:53:00,
2013-06-06 12:56:00,102.0,39.8,29.73,West,259,6.0,11.0,12,0.00,,,0.00,1095,WeatherHawk,2013-06-06 19:56:00,
2013-06-06 12:57:00,102.2,39.9,29.73,West,262,8.0,11.0,12,0.00,,,0.00,1098,WeatherHawk,2013-06-06 19:57:00,
2013-06-06 12:58:00,102.0,39.8,29.73,West,261,9.0,11.0,12,0.00,,,0.00,1101,WeatherHawk,2013-06-06 19:58:00,
2013-06-06 13:02:00,101.8,37.4,29.73,West,270,8.0,11.0,11,0.00,,,0.00,1098,WeatherHawk,2013-06-06 20:02:00,
2013-06-06 13:04:00,102.4,35.4,29.73,West,260,5.0,11.0,10,0.00,,,0.00,1098,WeatherHawk,2013-06-06 20:04:00,
2013-06-06 13:05:00,102.4,35.4,29.73,WSW,255,8.0,11.0,10,0.00,,,0.00,1099,WeatherHawk,2013-06-06 20:05:00,
2013-06-06 13:12:00,102.0,32.5,29.72,SW,233,9.0,12.0,9,0.00,,,0.00,1094,WeatherHawk,2013-06-06 20:12:00,
2013-06-06 13:14:00,102.9,33.2,29.72,West,267,10.0,12.0,9,0.00,,,0.00,1093,WeatherHawk,2013-06-06 20:14:00,
2013-06-06 13:17:00,102.9,33.2,29.72,West,279,8.0,-999.0,9,0.00,,,0.00,1096,WeatherHawk,2013-06-06 20:17:00,
2013-06-06 13:18:00,102.6,32.9,29.72,WSW,238,6.0,12.0,9,0.00,,,0.00,1094,WeatherHawk,2013-06-06 20:18:00,
2013-06-06 13:19:00,102.6,32.9,29.72,WSW,245,5.0,12.0,9,0.00,,,0.00,1090,WeatherHawk,2013-06-06 20:19:00,
2013-06-06 13:22:00,103.1,33.3,29.72,SW,228,6.0,12.0,9,0.00,,,0.00,1090,WeatherHawk,2013-06-06 20:22:00,
2013-06-06 13:23:00,103.1,33.3,29.72,West,260,8.0,12.0,9,0.00,,,0.00,1087,WeatherHawk,2013-06-06 20:23:00,
2013-06-06 13:24:00,103.5,33.6,29.72,West,272,10.0,12.0,9,0.00,,,0.00,1089,WeatherHawk,2013-06-06 20:24:00,
2013-06-06 13:31:00,103.3,33.4,29.72,SW,234,7.0,14.0,9,0.00,,,0.00,1079,WeatherHawk,2013-06-06 20:31:00,
2013-06-06 13:32:00,103.3,33.4,29.72,SW,230,7.0,14.0,9,0.00,,,0.00,1076,WeatherHawk,2013-06-06 20:32:00,
2013-06-06 13:36:00,103.5,33.6,29.72,SW,236,10.0,14.0,9,0.00,,,0.00,1078,WeatherHawk,2013-06-06 20:36:00,
2013-06-06 13:37:00,103.6,33.7,29.72,SW,228,11.0,13.0,9,0.00,,,0.00,1076,WeatherHawk,2013-06-06 20:37:00,
2013-06-06 13:39:00,104.2,34.1,29.71,WSW,254,10.0,13.0,9,0.00,,,0.00,1068,WeatherHawk,2013-06-06 20:39:00,
2013-06-06 13:41:00,104.0,34.0,29.71,West,263,6.0,13.0,9,0.00,,,0.00,1068,WeatherHawk,2013-06-06 20:41:00,
2013-06-06 13:43:00,103.5,33.6,29.71,WSW,250,4.0,13.0,9,0.00,,,0.00,1067,WeatherHawk,2013-06-06 20:43:00,
2013-06-06 13:46:00,103.8,33.8,29.71,West,269,10.0,13.0,9,0.00,,,0.00,1071,WeatherHawk,2013-06-06 20:46:00,
2013-06-06 13:47:00,104.0,34.0,29.71,West,266,9.0,13.0,9,0.00,,,0.00,1065,WeatherHawk,2013-06-06 20:47:00,
2013-06-06 13:48:00,104.0,34.0,29.71,WSW,241,5.0,13.0,9,0.00,,,0.00,1063,WeatherHawk,2013-06-06 20:48:00,
2013-06-06 13:52:00,103.8,33.8,29.71,SSW,196,2.0,13.0,9,0.00,,,0.00,1060,WeatherHawk,2013-06-06 20:52:00,
2013-06-06 13:53:00,103.6,33.7,29.71,SW,235,10.0,13.0,9,0.00,,,0.00,1059,WeatherHawk,2013-06-06 20:53:00,
2013-06-06 13:54:00,104.0,31.1,29.71,WSW,245,7.0,13.0,8,0.00,,,0.00,1057,WeatherHawk,2013-06-06 20:54:00,
2013-06-06 13:56:00,104.5,31.4,29.71,West,266,8.0,13.0,8,0.00,,,0.00,1060,WeatherHawk,2013-06-06 20:56:00,
2013-06-06 13:59:00,104.4,34.2,29.71,SW,218,8.0,12.0,9,0.00,,,0.00,1052,WeatherHawk,2013-06-06 20:59:00,
2013-06-06 14:01:00,104.2,34.1,29.71,WSW,240,8.0,12.0,9,0.00,,,0.00,1042,WeatherHawk,2013-06-06 21:01:00,
2013-06-06 14:02:00,104.0,34.0,29.71,WSW,244,9.0,12.0,9,0.00,,,0.00,1044,WeatherHawk,2013-06-06 21:02:00,
2013-06-06 14:06:00,104.2,34.1,29.71,WSW,240,7.0,-999.0,9,0.00,,,0.00,1035,WeatherHawk,2013-06-06 21:06:00,
2013-06-06 14:10:00,104.4,36.9,29.70,SW,225,7.0,12.0,10,0.00,,,0.00,1007,WeatherHawk,2013-06-06 21:10:00,
2013-06-06 14:11:00,104.5,37.0,29.70,SW,236,6.0,-999.0,10,0.00,,,0.00,1006,WeatherHawk,2013-06-06 21:11:00,
2013-06-06 14:13:00,104.4,36.9,29.70,SSW,199,5.0,12.0,10,0.00,,,0.00,998,WeatherHawk,2013-06-06 21:13:00,
2013-06-06 14:15:00,104.4,34.2,29.70,South,183,6.0,12.0,9,0.00,,,0.00,991,WeatherHawk,2013-06-06 21:15:00,
2013-06-06 14:16:00,104.4,34.2,29.70,South,183,6.0,12.0,9,0.00,,,0.00,991,WeatherHawk,2013-06-06 21:16:00,
2013-06-06 14:19:00,105.1,37.4,29.70,WSW,258,8.0,11.0,10,0.00,,,0.00,1000,WeatherHawk,2013-06-06 21:19:00,
2013-06-06 14:21:00,104.7,34.5,29.70,WSW,257,9.0,11.0,9,0.00,,,0.00,1006,WeatherHawk,2013-06-06 21:21:00,
2013-06-06 14:24:00,105.1,34.8,29.70,West,267,9.0,11.0,9,0.00,,,0.00,975,WeatherHawk,2013-06-06 21:24:00,
2013-06-06 14:25:00,105.1,34.8,29.70,NW,307,5.0,11.0,9,0.00,,,0.00,972,WeatherHawk,2013-06-06 21:25:00,
2013-06-06 14:29:00,104.9,34.6,29.69,WNW,303,2.0,11.0,9,0.00,,,0.00,975,WeatherHawk,2013-06-06 21:29:00,
2013-06-06 14:30:00,104.9,34.6,29.69,WSW,249,4.0,11.0,9,0.00,,,0.00,970,WeatherHawk,2013-06-06 21:30:00,
2013-06-06 14:32:00,104.9,34.6,29.69,SW,221,5.0,11.0,9,0.00,,,0.00,975,WeatherHawk,2013-06-06 21:32:00,
2013-06-06 14:34:00,105.1,34.8,29.69,WSW,254,9.0,11.0,9,0.00,,,0.00,970,WeatherHawk,2013-06-06 21:34:00,
2013-06-06 14:36:00,105.3,37.6,29.69,WSW,250,12.0,12.0,10,0.00,,,0.00,963,WeatherHawk,2013-06-06 21:36:00,
2013-06-06 14:39:00,105.4,35.0,29.69,SW,236,13.0,13.0,9,0.00,,,0.00,960,WeatherHawk,2013-06-06 21:39:00,
2013-06-06 14:42:00,105.1,34.8,29.69,West,270,6.0,12.0,9,0.00,,,0.00,948,WeatherHawk,2013-06-06 21:42:00,
2013-06-06 14:45:00,105.1,37.4,29.69,WSW,257,8.0,12.0,10,0.00,,,0.00,950,WeatherHawk,2013-06-06 21:45:00,
2013-06-06 14:46:00,105.3,37.6,29.68,West,260,9.0,12.0,10,0.00,,,0.00,948,WeatherHawk,2013-06-06 21:46:00,
2013-06-06 14:49:00,106.0,35.4,29.69,SW,234,9.0,13.0,9,0.00,,,0.00,942,WeatherHawk,2013-06-06 21:49:00,
2013-06-06 14:51:00,105.4,35.0,29.68,WSW,243,9.0,13.0,9,0.00,,,0.00,934,WeatherHawk,2013-06-06 21:51:00,
2013-06-06 14:52:00,105.4,35.0,29.68,WSW,237,7.0,13.0,9,0.00,,,0.00,937,WeatherHawk,2013-06-06 21:52:00,
2013-06-06 14:55:00,105.8,32.4,29.68,West,265,10.0,13.0,8,0.00,,,0.00,938,WeatherHawk,2013-06-06 21:55:00,
2013-06-06 14:57:00,105.6,32.2,29.68,WSW,257,9.0,13.0,8,0.00,,,0.00,940,WeatherHawk,2013-06-06 21:57:00,
2013-06-06 14:58:00,105.3,32.0,29.68,NNW,336,6.0,13.0,8,0.00,,,0.00,935,WeatherHawk,2013-06-06 21:58:00,
2013-06-06 14:59:00,105.1,31.8,29.68,West,261,8.0,13.0,8,0.00,,,0.00,926,WeatherHawk,2013-06-06 21:59:00,
2013-06-06 15:01:00,105.3,32.0,29.68,West,262,9.0,13.0,8,0.00,,,0.00,918,WeatherHawk,2013-06-06 22:01:00,
2013-06-06 15:04:00,105.8,32.4,29.68,West,268,5.0,13.0,8,0.00,,,0.00,917,WeatherHawk,2013-06-06 22:04:00,
2013-06-06 15:05:00,105.8,32.4,29.68,NW,315,6.0,13.0,8,0.00,,,0.00,918,WeatherHawk,2013-06-06 22:05:00,
2013-06-06 15:06:00,105.8,32.4,29.68,West,266,10.0,13.0,8,0.00,,,0.00,911,WeatherHawk,2013-06-06 22:06:00,
2013-06-06 15:08:00,105.6,32.2,29.68,WSW,256,11.0,12.0,8,0.00,,,0.00,905,WeatherHawk,2013-06-06 22:08:00,
2013-06-06 15:09:00,105.4,32.1,29.68,West,279,4.0,12.0,8,0.00,,,0.00,898,WeatherHawk,2013-06-06 22:09:00,
2013-06-06 15:10:00,105.4,32.1,29.68,NNW,335,4.0,12.0,8,0.00,,,0.00,899,WeatherHawk,2013-06-06 22:10:00,
2013-06-06 15:13:00,105.6,32.2,29.68,WNW,297,8.0,12.0,8,0.00,,,0.00,889,WeatherHawk,2013-06-06 22:13:00,
2013-06-06 15:15:00,105.6,32.2,29.67,West,267,7.0,12.0,8,0.00,,,0.00,886,WeatherHawk,2013-06-06 22:15:00,
2013-06-06 15:18:00,105.6,32.2,29.67,SSW,210,10.0,11.0,8,0.00,,,0.00,871,WeatherHawk,2013-06-06 22:18:00,
2013-06-06 15:19:00,105.6,32.2,29.67,SSW,209,10.0,11.0,8,0.00,,,0.00,867,WeatherHawk,2013-06-06 22:19:00,
2013-06-06 15:20:00,105.4,32.1,29.67,SSW,201,6.0,11.0,8,0.00,,,0.00,868,WeatherHawk,2013-06-06 22:20:00,
2013-06-06 15:21:00,105.4,32.1,29.67,SSE,161,4.0,11.0,8,0.00,,,0.00,870,WeatherHawk,2013-06-06 22:21:00,
2013-06-06 15:22:00,105.6,32.2,29.67,SSW,211,6.0,11.0,8,0.00,,,0.00,868,WeatherHawk,2013-06-06 22:22:00,
2013-06-06 15:24:00,106.2,35.6,29.67,SW,236,8.0,11.0,9,0.00,,,0.00,869,WeatherHawk,2013-06-06 22:24:00,
2013-06-06 15:25:00,106.5,32.9,29.67,WSW,237,10.0,11.0,8,0.00,,,0.00,860,WeatherHawk,2013-06-06 22:25:00,
2013-06-06 15:27:00,106.3,29.5,29.67,WSW,255,4.0,11.0,7,0.00,,,0.00,857,WeatherHawk,2013-06-06 22:27:00,
2013-06-06 15:29:00,106.2,32.6,29.67,SW,228,6.0,12.0,8,0.00,,,0.00,851,WeatherHawk,2013-06-06 22:29:00,
2013-06-06 15:32:00,106.0,32.5,29.67,WSW,247,6.0,12.0,8,0.00,,,0.00,835,WeatherHawk,2013-06-06 22:32:00,
2013-06-06 15:34:00,106.0,32.5,29.66,NNW,345,1.0,12.0,8,0.00,,,0.00,828,WeatherHawk,2013-06-06 22:34:00,
2013-06-06 15:35:00,106.0,32.5,29.66,West,262,1.0,12.0,8,0.00,,,0.00,825,WeatherHawk,2013-06-06 22:35:00,
2013-06-06 15:40:00,106.5,32.9,29.66,WSW,254,7.0,11.0,8,0.00,,,0.00,811,WeatherHawk,2013-06-06 22:40:00,
2013-06-06 15:42:00,106.9,33.2,29.66,WNW,287,6.0,11.0,8,0.00,,,0.00,806,WeatherHawk,2013-06-06 22:42:00,
2013-06-06 15:43:00,107.1,33.3,29.66,NW,307,4.0,11.0,8,0.00,,,0.00,802,WeatherHawk,2013-06-06 22:43:00,
2013-06-06 15:47:00,106.3,32.8,29.66,WSW,245,9.0,11.0,8,0.00,,,0.00,793,WeatherHawk,2013-06-06 22:47:00,
2013-06-06 15:49:00,106.5,32.9,29.66,West,270,7.0,9.0,8,0.00,,,0.00,784,WeatherHawk,2013-06-06 22:49:00,
2013-06-06 15:52:00,106.3,32.8,29.66,WSW,250,6.0,9.0,8,0.00,,,0.00,775,WeatherHawk,2013-06-06 22:52:00,
2013-06-06 15:57:00,106.2,32.6,29.65,SW,218,8.0,9.0,8,0.00,,,0.00,757,WeatherHawk,2013-06-06 22:57:00,
2013-06-06 15:58:00,106.3,32.8,29.65,WSW,252,5.0,12.0,8,0.00,,,0.00,753,WeatherHawk,2013-06-06 22:58:00,
2013-06-06 16:02:00,107.1,33.3,29.65,WSW,241,8.0,12.0,8,0.00,,,0.00,739,WeatherHawk,2013-06-06 23:02:00,
2013-06-06 16:03:00,107.1,33.3,29.65,WSW,248,5.0,12.0,8,0.00,,,0.00,732,WeatherHawk,2013-06-06 23:03:00,
2013-06-06 16:05:00,107.4,33.5,29.65,WSW,256,6.0,12.0,8,0.00,,,0.00,723,WeatherHawk,2013-06-06 23:05:00,
2013-06-06 16:06:00,107.2,33.4,29.65,WSW,246,8.0,12.0,8,0.00,,,0.00,722,WeatherHawk,2013-06-06 23:06:00,
2013-06-06 16:07:00,107.2,33.4,29.65,SW,230,9.0,12.0,8,0.00,,,0.00,722,WeatherHawk,2013-06-06 23:07:00,
2013-06-06 16:12:00,106.2,32.6,29.65,SSW,195,7.0,10.0,8,0.00,,,0.00,702,WeatherHawk,2013-06-06 23:12:00,
2013-06-06 16:15:00,106.2,32.6,29.65,WSW,237,6.0,10.0,8,0.00,,,0.00,689,WeatherHawk,2013-06-06 23:15:00,
2013-06-06 16:16:00,106.3,32.8,29.65,WNW,289,3.0,10.0,8,0.00,,,0.00,688,WeatherHawk,2013-06-06 23:16:00,
2013-06-06 16:17:00,106.3,32.8,29.65,WNW,289,3.0,10.0,8,0.00,,,0.00,688,WeatherHawk,2013-06-06 23:17:00,
2013-06-06 16:22:00,107.1,33.3,29.65,SW,234,4.0,11.0,8,0.00,,,0.00,671,WeatherHawk,2013-06-06 23:22:00,
2013-06-06 16:23:00,106.9,33.2,29.65,SW,226,3.0,11.0,8,0.00,,,0.00,666,WeatherHawk,2013-06-06 23:23:00,
2013-06-06 16:25:00,107.1,33.3,29.65,West,273,3.0,11.0,8,0.00,,,0.00,659,WeatherHawk,2013-06-06 23:25:00,
2013-06-06 16:26:00,107.4,33.5,29.64,WSW,247,4.0,11.0,8,0.00,,,0.00,656,WeatherHawk,2013-06-06 23:26:00,
2013-06-06 16:30:00,107.1,33.3,29.64,South,175,6.0,7.0,8,0.00,,,0.00,643,WeatherHawk,2013-06-06 23:30:00,
2013-06-06 16:31:00,106.7,33.0,29.64,South,180,5.0,7.0,8,0.00,,,0.00,641,WeatherHawk,2013-06-06 23:31:00,
2013-06-06 16:32:00,106.7,33.0,29.64,South,180,5.0,7.0,8,0.00,,,0.00,641,WeatherHawk,2013-06-06 23:32:00,
2013-06-06 16:33:00,106.5,35.8,29.64,West,264,8.0,8.0,9,0.00,,,0.00,632,WeatherHawk,2013-06-06 23:33:00,
2013-06-06 16:37:00,107.2,33.4,29.64,WSW,250,9.0,9.0,8,0.00,,,0.00,614,WeatherHawk,2013-06-06 23:37:00,
2013-06-06 16:39:00,107.1,33.3,29.64,WSW,240,5.0,10.0,8,0.00,,,0.00,608,WeatherHawk,2013-06-06 23:39:00,
2013-06-06 16:41:00,106.9,33.2,29.64,WSW,252,8.0,10.0,8,0.00,,,0.00,600,WeatherHawk,2013-06-06 23:41:00,
2013-06-06 16:42:00,106.7,33.0,29.64,SW,222,6.0,10.0,8,0.00,,,0.00,595,WeatherHawk,2013-06-06 23:42:00,
2013-06-06 16:43:00,106.5,32.9,29.64,SSW,200,3.0,10.0,8,0.00,,,0.00,593,WeatherHawk,2013-06-06 23:43:00,
2013-06-06 16:47:00,106.5,32.9,29.64,SW,223,5.0,10.0,8,0.00,,,0.00,578,WeatherHawk,2013-06-06 23:47:00,
2013-06-06 16:48:00,106.7,33.0,29.64,WSW,258,5.0,11.0,8,0.00,,,0.00,574,WeatherHawk,2013-06-06 23:48:00,
2013-06-06 16:52:00,106.9,36.1,29.63,WSW,254,7.0,11.0,9,0.00,,,0.00,560,WeatherHawk,2013-06-06 23:52:00,
2013-06-06 16:54:00,107.1,36.2,29.63,WSW,237,6.0,11.0,9,0.00,,,0.00,553,WeatherHawk,2013-06-06 23:54:00,
2013-06-06 16:55:00,107.1,36.2,29.63,WSW,250,8.0,11.0,9,0.00,,,0.00,546,WeatherHawk,2013-06-06 23:55:00,
2013-06-06 16:56:00,107.1,36.2,29.63,West,267,7.0,11.0,9,0.00,,,0.00,546,WeatherHawk,2013-06-06 23:56:00,
2013-06-06 16:57:00,107.1,36.2,29.63,West,267,7.0,11.0,9,0.00,,,0.00,546,WeatherHawk,2013-06-06 23:57:00,
2013-06-06 17:01:00,107.1,33.3,29.63,WSW,256,4.0,10.0,8,0.00,,,0.00,525,WeatherHawk,2013-06-07 00:01:00,
2013-06-06 17:02:00,107.1,33.3,29.63,WSW,256,4.0,10.0,8,0.00,,,0.00,525,WeatherHawk,2013-06-07 00:02:00,
2013-06-06 17:03:00,106.9,33.2,29.63,SW,221,4.0,10.0,8,0.00,,,0.00,520,WeatherHawk,2013-06-07 00:03:00,
2013-06-06 17:07:00,106.9,33.2,29.63,SW,231,9.0,10.0,8,0.00,,,0.00,505,WeatherHawk,2013-06-07 00:07:00,
2013-06-06 17:09:00,106.7,33.0,29.63,SW,221,8.0,9.0,8,0.00,,,0.00,496,WeatherHawk,2013-06-07 00:09:00,
2013-06-06 17:11:00,106.7,33.0,29.63,SW,222,7.0,9.0,8,0.00,,,0.00,489,WeatherHawk,2013-06-07 00:11:00,
2013-06-06 17:12:00,106.7,33.0,29.63,WSW,242,6.0,9.0,8,0.00,,,0.00,485,WeatherHawk,2013-06-07 00:12:00,
2013-06-06 17:15:00,106.9,33.2,29.63,West,268,7.0,9.0,8,0.00,,,0.00,473,WeatherHawk,2013-06-07 00:15:00,
2013-06-06 17:16:00,106.9,33.2,29.63,West,263,6.0,9.0,8,0.00,,,0.00,468,WeatherHawk,2013-06-07 00:16:00,
2013-06-06 17:17:00,106.9,33.2,29.63,West,263,6.0,-999.0,8,0.00,,,0.00,468,WeatherHawk,2013-06-07 00:17:00,
2013-06-06 17:20:00,106.5,35.8,29.63,West,263,8.0,11.0,9,0.00,,,0.00,452,WeatherHawk,2013-06-07 00:20:00,
2013-06-06 17:21:00,106.7,33.0,29.63,WSW,257,7.0,11.0,8,0.00,,,0.00,452,WeatherHawk,2013-06-07 00:21:00,
2013-06-06 17:22:00,106.7,33.0,29.63,WSW,257,7.0,11.0,8,0.00,,,0.00,452,WeatherHawk,2013-06-07 00:22:00,
2013-06-06 17:27:00,106.5,32.9,29.63,SW,226,2.0,11.0,8,0.00,,,0.00,428,WeatherHawk,2013-06-07 00:27:00,
2013-06-06 17:30:00,106.7,33.0,29.63,West,263,6.0,10.0,8,0.00,,,0.00,411,WeatherHawk,2013-06-07 00:30:00,
2013-06-06 17:32:00,106.9,33.2,29.63,WSW,247,5.0,10.0,8,0.00,,,0.00,410,WeatherHawk,2013-06-07 00:32:00,
2013-06-06 17:37:00,106.9,33.2,29.63,SSW,206,7.0,10.0,8,0.00,,,0.00,391,WeatherHawk,2013-06-07 00:37:00,
2013-06-06 17:40:00,106.9,33.2,29.63,SW,232,5.0,8.0,8,0.00,,,0.00,381,WeatherHawk,2013-06-07 00:40:00,
2013-06-06 17:41:00,107.1,36.2,29.63,WSW,244,6.0,8.0,9,0.00,,,0.00,377,WeatherHawk,2013-06-07 00:41:00,
2013-06-06 17:42:00,107.1,33.3,29.63,West,264,7.0,-999.0,8,0.00,,,0.00,374,WeatherHawk,2013-06-07 00:42:00,
2013-06-06 17:45:00,106.7,33.0,29.63,WSW,255,7.0,8.0,8,0.00,,,0.00,358,WeatherHawk,2013-06-07 00:45:00,
2013-06-06 17:46:00,106.5,32.9,29.63,WSW,257,7.0,8.0,8,0.00,,,0.00,354,WeatherHawk,2013-06-07 00:46:00,
2013-06-06 17:51:00,106.3,32.8,29.62,SW,232,6.0,9.0,8,0.00,,,0.00,335,WeatherHawk,2013-06-07 00:51:00,
2013-06-06 17:52:00,106.3,32.8,29.62,WSW,244,9.0,9.0,8,0.00,,,0.00,332,WeatherHawk,2013-06-07 00:52:00,
2013-06-06 17:53:00,106.3,32.8,29.62,WSW,253,7.0,9.0,8,0.00,,,0.00,328,WeatherHawk,2013-06-07 00:53:00,
2013-06-06 17:57:00,106.3,32.8,29.62,SW,222,3.0,-999.0,8,0.00,,,0.00,313,WeatherHawk,2013-06-07 00:57:00,
2013-06-06 17:58:00,106.3,32.8,29.62,SW,229,2.0,0.0,8,0.00,,,0.00,310,WeatherHawk,2013-06-07 00:58:00,
2013-06-06 18:00:00,106.3,32.8,29.62,West,266,6.0,9.0,8,0.00,,,0.00,303,WeatherHawk,2013-06-07 01:00:00,
2013-06-06 18:02:00,106.2,32.6,29.62,SW,226,6.0,9.0,8,0.00,,,0.00,299,WeatherHawk,2013-06-07 01:02:00,
2013-06-06 18:04:00,106.2,32.6,29.62,WSW,255,4.0,9.0,8,0.00,,,0.00,289,WeatherHawk,2013-06-07 01:04:00,
2013-06-06 18:07:00,106.2,35.6,29.62,WSW,250,7.0,9.0,9,0.00,,,0.00,281,WeatherHawk,2013-06-07 01:07:00,
2013-06-06 18:11:00,106.2,35.6,29.62,WSW,254,7.0,8.0,9,0.00,,,0.00,262,WeatherHawk,2013-06-07 01:11:00,
2013-06-06 18:12:00,106.2,35.6,29.62,WSW,254,7.0,-999.0,9,0.00,,,0.00,262,WeatherHawk,2013-06-07 01:12:00,
2013-06-06 18:15:00,106.0,32.5,29.62,West,262,6.0,8.0,8,0.00,,,0.00,249,WeatherHawk,2013-06-07 01:15:00,
2013-06-06 18:16:00,106.0,32.5,29.62,WSW,247,6.0,8.0,8,0.00,,,0.00,246,WeatherHawk,2013-06-07 01:16:00,
2013-06-06 18:18:00,105.8,32.4,29.62,West,269,5.0,7.0,8,0.00,,,0.00,240,WeatherHawk,2013-06-07 01:18:00,
2013-06-06 18:21:00,106.0,32.5,29.62,WNW,293,7.0,7.0,8,0.00,,,0.00,229,WeatherHawk,2013-06-07 01:21:00,
2013-06-06 18:22:00,106.0,35.4,29.62,WNW,287,6.0,7.0,9,0.00,,,0.00,226,WeatherHawk,2013-06-07 01:22:00,
2013-06-06 18:26:00,105.6,32.2,29.62,WNW,284,6.0,7.0,8,0.00,,,0.00,209,WeatherHawk,2013-06-07 01:26:00,
2013-06-06 18:27:00,105.6,32.2,29.62,WNW,284,6.0,7.0,8,0.00,,,0.00,209,WeatherHawk,2013-06-07 01:27:00,
2013-06-06 18:30:00,105.6,32.2,29.62,WNW,288,6.0,8.0,8,0.00,,,0.00,195,WeatherHawk,2013-06-07 01:30:00,
2013-06-06 18:32:00,105.6,32.2,29.62,WNW,303,6.0,-999.0,8,0.00,,,0.00,190,WeatherHawk,2013-06-07 01:32:00,
2013-06-06 18:34:00,105.4,32.1,29.62,WNW,291,7.0,8.0,8,0.00,,,0.00,180,WeatherHawk,2013-06-07 01:34:00,
2013-06-06 18:37:00,105.4,32.1,29.62,WNW,298,6.0,8.0,8,0.00,,,0.00,174,WeatherHawk,2013-06-07 01:37:00,
2013-06-06 18:38:00,105.4,32.1,29.62,WNW,284,6.0,7.0,8,0.00,,,0.00,168,WeatherHawk,2013-06-07 01:38:00,
2013-06-06 18:42:00,105.1,34.8,29.62,WNW,292,6.0,-999.0,9,0.00,,,0.00,160,WeatherHawk,2013-06-07 01:42:00,
2013-06-06 18:47:00,104.7,34.5,29.62,WNW,289,5.0,0.0,9,0.00,,,0.00,135,WeatherHawk,2013-06-07 01:47:00,
2013-06-06 18:48:00,104.5,34.4,29.62,WNW,291,5.0,7.0,9,0.00,,,0.00,129,WeatherHawk,2013-06-07 01:48:00,
2013-06-06 18:49:00,104.5,37.0,29.62,West,281,5.0,7.0,10,0.00,,,0.00,125,WeatherHawk,2013-06-07 01:49:00,
2013-06-06 18:52:00,104.2,34.1,29.62,WNW,284,5.0,-999.0,9,0.00,,,0.00,120,WeatherHawk,2013-06-07 01:52:00,
2013-06-06 18:55:00,104.0,36.6,29.63,West,281,6.0,7.0,10,0.00,,,0.00,108,WeatherHawk,2013-06-07 01:55:00,
2013-06-06 18:56:00,103.8,33.8,29.63,West,274,5.0,7.0,9,0.00,,,0.00,103,WeatherHawk,2013-06-07 01:56:00,
2013-06-06 18:57:00,103.8,33.8,29.63,West,274,5.0,7.0,9,0.00,,,0.00,103,WeatherHawk,2013-06-07 01:57:00,
2013-06-06 19:00:00,103.6,36.4,29.63,WNW,292,4.0,6.0,10,0.00,,,0.00,94,WeatherHawk,2013-06-07 02:00:00,
2013-06-06 19:02:00,103.6,33.7,29.63,WNW,286,4.0,6.0,9,0.00,,,0.00,91,WeatherHawk,2013-06-07 02:02:00,
2013-06-06 19:04:00,103.6,36.4,29.63,West,272,4.0,6.0,10,0.00,,,0.00,84,WeatherHawk,2013-06-07 02:04:00,
2013-06-06 19:06:00,103.5,36.2,29.63,West,276,3.0,6.0,10,0.00,,,0.00,81,WeatherHawk,2013-06-07 02:06:00,
2013-06-06 19:07:00,103.5,36.2,29.63,West,280,3.0,6.0,10,0.00,,,0.00,82,WeatherHawk,2013-06-07 02:07:00,
2013-06-06 19:09:00,103.3,36.1,29.63,West,268,3.0,6.0,10,0.00,,,0.00,73,WeatherHawk,2013-06-07 02:09:00,
2013-06-06 19:11:00,103.3,33.4,29.63,West,277,3.0,6.0,9,0.00,,,0.00,65,WeatherHawk,2013-06-07 02:11:00,
2013-06-06 19:12:00,103.3,33.4,29.63,West,274,4.0,6.0,9,0.00,,,0.00,62,WeatherHawk,2013-06-07 02:12:00,
2013-06-06 19:13:00,103.3,33.4,29.63,West,268,3.0,6.0,9,0.00,,,0.00,61,WeatherHawk,2013-06-07 02:13:00,
2013-06-06 19:15:00,103.1,33.3,29.63,West,267,3.0,6.0,9,0.00,,,0.00,58,WeatherHawk,2013-06-07 02:15:00,
2013-06-06 19:19:00,102.9,33.2,29.63,West,260,2.0,4.0,9,0.00,,,0.00,46,WeatherHawk,2013-06-07 02:19:00,
2013-06-06 19:22:00,102.7,33.0,29.63,West,267,2.0,4.0,9,0.00,,,0.00,44,WeatherHawk,2013-06-07 02:22:00,
2013-06-06 19:23:00,102.7,33.0,29.63,West,278,2.0,4.0,9,0.00,,,0.00,43,WeatherHawk,2013-06-07 02:23:00,
2013-06-06 19:24:00,102.6,32.9,29.63,West,267,2.0,4.0,9,0.00,,,0.00,39,WeatherHawk,2013-06-07 02:24:00,
2013-06-06 19:26:00,102.4,32.8,29.63,West,263,3.0,4.0,9,0.00,,,0.00,34,WeatherHawk,2013-06-07 02:26:00,
2013-06-06 19:29:00,102.2,32.6,29.63,West,265,3.0,0.0,9,0.00,,,0.00,27,WeatherHawk,2013-06-07 02:29:00,
2013-06-06 19:30:00,102.0,32.5,29.63,West,263,3.0,4.0,9,0.00,,,0.00,24,WeatherHawk,2013-06-07 02:30:00,
2013-06-06 19:32:00,101.8,32.4,29.63,West,262,2.0,4.0,9,0.00,,,0.00,21,WeatherHawk,2013-06-07 02:32:00,
2013-06-06 19:34:00,101.7,32.2,29.63,WSW,253,2.0,4.0,9,0.00,,,0.00,16,WeatherHawk,2013-06-07 02:34:00,
2013-06-06 19:37:00,101.7,32.2,29.63,WSW,250,2.0,4.0,9,0.00,,,0.00,11,WeatherHawk,2013-06-07 02:37:00,
2013-06-06 19:42:00,101.3,32.0,29.63,SW,236,2.0,-999.0,9,0.00,,,0.00,6,WeatherHawk,2013-06-07 02:42:00,
2013-06-06 19:44:00,101.1,31.8,29.63,WSW,248,3.0,3.0,9,0.00,,,0.00,5,WeatherHawk,2013-06-07 02:44:00,
2013-06-06 19:49:00,100.9,34.3,29.63,WSW,254,3.0,3.0,10,0.00,,,0.00,2,WeatherHawk,2013-06-07 02:49:00,
2013-06-06 19:50:00,100.8,34.2,29.63,WSW,251,2.0,3.0,10,0.00,,,0.00,2,WeatherHawk,2013-06-07 02:50:00,
2013-06-06 19:51:00,100.8,34.2,29.63,WSW,250,2.0,3.0,10,0.00,,,0.00,2,WeatherHawk,2013-06-07 02:51:00,
2013-06-06 19:52:00,100.8,34.2,29.63,WSW,250,2.0,3.0,10,0.00,,,0.00,2,WeatherHawk,2013-06-07 02:52:00,
2013-06-06 19:53:00,100.8,34.2,29.63,WSW,248,2.0,3.0,10,0.00,,,0.00,3,WeatherHawk,2013-06-07 02:53:00,
2013-06-06 19:56:00,100.6,34.1,29.63,WSW,248,2.0,3.0,10,0.00,,,0.00,0,WeatherHawk,2013-06-07 02:56:00,
2013-06-06 19:57:00,100.6,34.1,29.63,WSW,248,2.0,-999.0,10,0.00,,,0.00,0,WeatherHawk,2013-06-07 02:57:00,
2013-06-06 19:58:00,100.6,34.1,29.63,WSW,248,2.0,3.0,10,0.00,,,0.00,0,WeatherHawk,2013-06-07 02:58:00,
2013-06-06 20:01:00,100.6,34.1,29.63,WSW,247,2.0,3.0,10,0.00,,,0.00,0,WeatherHawk,2013-06-07 03:01:00,
2013-06-06 20:02:00,100.6,34.1,29.63,WSW,247,2.0,-999.0,10,0.00,,,0.00,0,WeatherHawk,2013-06-07 03:02:00,
2013-06-06 20:03:00,100.6,34.1,29.63,WSW,245,2.0,3.0,10,0.00,,,0.00,0,WeatherHawk,2013-06-07 03:03:00,
2013-06-06 20:06:00,100.6,34.1,29.63,WSW,249,2.0,3.0,10,0.00,,,0.00,0,WeatherHawk,2013-06-07 03:06:00,
2013-06-06 20:07:00,100.6,34.1,29.63,WSW,246,2.0,0.0,10,0.00,,,0.00,0,WeatherHawk,2013-06-07 03:07:00,
2013-06-06 20:08:00,100.6,31.4,29.63,WSW,241,2.0,2.0,9,0.00,,,0.00,0,WeatherHawk,2013-06-07 03:08:00,
2013-06-06 20:10:00,100.6,31.4,29.63,SW,236,2.0,2.0,9,0.00,,,0.00,0,WeatherHawk,2013-06-07 03:10:00,
2013-06-06 20:12:00,100.6,31.4,29.63,SW,224,2.0,2.0,9,0.00,,,0.00,0,WeatherHawk,2013-06-07 03:12:00,
2013-06-06 20:13:00,100.6,34.1,29.63,SSW,193,5.0,5.0,10,0.00,,,0.00,1,WeatherHawk,2013-06-07 03:13:00,
2013-06-06 20:15:00,100.0,36.1,29.63,South,191,7.0,7.0,11,0.00,,,0.00,0,WeatherHawk,2013-06-07 03:15:00,
2013-06-06 20:17:00,98.8,35.1,29.63,South,188,8.0,0.0,11,0.00,,,0.00,0,WeatherHawk,2013-06-07 03:17:00,
2013-06-06 20:18:00,98.4,37.0,29.63,South,189,8.0,0.0,12,0.00,,,0.00,0,WeatherHawk,2013-06-07 03:18:00,
2013-06-06 20:22:00,98.1,38.8,29.63,South,191,7.0,9.0,13,0.00,,,0.00,0,WeatherHawk,2013-06-07 03:22:00,
2013-06-06 20:24:00,97.9,40.5,29.63,South,191,10.0,10.0,14,0.00,,,0.00,0,WeatherHawk,2013-06-07 03:24:00,
2013-06-06 20:26:00,98.1,40.7,29.64,South,187,9.0,9.0,14,0.00,,,0.00,0,WeatherHawk,2013-06-07 03:26:00,
2013-06-06 20:27:00,98.1,40.7,29.64,South,189,9.0,10.0,14,0.00,,,0.00,0,WeatherHawk,2013-06-07 03:27:00,
2013-06-06 20:30:00,97.9,40.5,29.64,South,186,10.0,10.0,14,0.00,,,0.00,0,WeatherHawk,2013-06-07 03:30:00,
2013-06-06 20:31:00,97.7,40.4,29.64,South,187,9.0,10.0,14,0.00,,,0.00,0,WeatherHawk,2013-06-07 03:31:00,
2013-06-06 20:33:00,97.7,40.4,29.64,SSW,192,8.0,10.0,14,0.00,,,0.00,0,WeatherHawk,2013-06-07 03:33:00,
2013-06-06 20:35:00,97.5,42.0,29.64,SSW,192,9.0,10.0,15,0.00,,,0.00,0,WeatherHawk,2013-06-07 03:35:00,
2013-06-06 20:39:00,97.3,40.1,29.64,SSW,195,7.0,11.0,14,0.00,,,0.00,0,WeatherHawk,2013-06-07 03:39:00,
2013-06-06 20:40:00,97.2,40.0,29.64,SSW,196,9.0,11.0,14,0.00,,,0.00,0,WeatherHawk,2013-06-07 03:40:00,
2013-06-06 20:42:00,97.2,40.0,29.64,SSW,194,9.0,-999.0,14,0.00,,,0.00,0,WeatherHawk,2013-06-07 03:42:00,
2013-06-06 20:45:00,97.0,39.8,29.64,South,183,10.0,11.0,14,0.00,,,0.00,0,WeatherHawk,2013-06-07 03:45:00,
2013-06-06 20:47:00,97.0,39.8,29.64,South,184,10.0,11.0,14,0.00,,,0.00,0,WeatherHawk,2013-06-07 03:47:00,
2013-06-06 20:51:00,96.8,41.5,29.64,South,188,10.0,12.0,15,0.00,,,0.00,0,WeatherHawk,2013-06-07 03:51:00,
2013-06-06 20:52:00,96.8,41.5,29.64,South,188,10.0,-999.0,15,0.00,,,0.00,0,WeatherHawk,2013-06-07 03:52:00,
2013-06-06 20:57:00,96.1,40.9,29.64,South,186,8.0,13.0,15,0.00,,,0.00,0,WeatherHawk,2013-06-07 03:57:00,
2013-06-06 20:59:00,96.1,42.6,29.65,South,178,7.0,13.0,16,0.00,,,0.00,0,WeatherHawk,2013-06-07 03:59:00,
2013-06-06 21:01:00,95.7,42.3,29.64,South,173,9.0,13.0,16,0.00,,,0.00,0,WeatherHawk,2013-06-07 04:01:00,
2013-06-06 21:02:00,95.7,42.3,29.64,South,173,9.0,13.0,16,0.00,,,0.00,0,WeatherHawk,2013-06-07 04:02:00,
2013-06-06 21:03:00,95.4,42.0,29.64,South,179,8.0,13.0,16,0.00,,,0.00,0,WeatherHawk,2013-06-07 04:03:00,
2013-06-06 21:04:00,95.2,41.9,29.64,South,180,9.0,13.0,16,0.00,,,0.00,0,WeatherHawk,2013-06-07 04:04:00,
2013-06-06 21:05:00,95.2,41.9,29.64,South,182,10.0,13.0,16,0.00,,,0.00,0,WeatherHawk,2013-06-07 04:05:00,
2013-06-06 21:07:00,95.0,41.7,29.65,South,188,9.0,11.0,16,0.00,,,0.00,0,WeatherHawk,2013-06-07 04:07:00,
2013-06-06 21:09:00,94.8,41.6,29.65,SSW,199,6.0,11.0,16,0.00,,,0.00,0,WeatherHawk,2013-06-07 04:09:00,
2013-06-06 21:12:00,94.5,41.3,29.65,SSW,194,8.0,-999.0,16,0.00,,,0.00,0,WeatherHawk,2013-06-07 04:12:00,
2013-06-06 21:14:00,94.3,41.2,29.65,South,189,10.0,11.0,16,0.00,,,0.00,0,WeatherHawk,2013-06-07 04:14:00,
2013-06-06 21:15:00,94.3,41.2,29.65,SSW,194,10.0,11.0,16,0.00,,,0.00,0,WeatherHawk,2013-06-07 04:15:00,
2013-06-06 21:17:00,94.1,41.0,29.65,SSW,194,9.0,11.0,16,0.00,,,0.00,0,WeatherHawk,2013-06-07 04:17:00,
2013-06-06 21:20:00,93.9,40.9,29.65,SSW,195,9.0,11.0,16,0.00,,,0.00,0,WeatherHawk,2013-06-07 04:20:00,
2013-06-06 21:22:00,93.9,40.9,29.65,SSW,193,9.0,11.0,16,0.00,,,0.00,0,WeatherHawk,2013-06-07 04:22:00,
2013-06-06 21:26:00,93.2,41.9,29.65,SSW,194,8.0,11.0,17,0.00,,,0.00,0,WeatherHawk,2013-06-07 04:26:00,
2013-06-06 21:27:00,93.2,41.9,29.65,SSW,194,8.0,11.0,17,0.00,,,0.00,0,WeatherHawk,2013-06-07 04:27:00,
2013-06-06 21:32:00,92.3,41.1,29.66,SSW,193,6.0,11.0,17,0.00,,,0.00,0,WeatherHawk,2013-06-07 04:32:00,
2013-06-06 21:33:00,91.9,40.9,29.66,SSW,196,5.0,11.0,17,0.00,,,0.00,0,WeatherHawk,2013-06-07 04:33:00,
2013-06-06 21:37:00,91.6,40.6,29.66,South,191,6.0,11.0,17,0.00,,,0.00,0,WeatherHawk,2013-06-07 04:37:00,
2013-06-06 21:38:00,91.6,40.6,29.66,SSW,193,5.0,8.0,17,0.00,,,0.00,0,WeatherHawk,2013-06-07 04:38:00,
2013-06-06 21:40:00,91.4,40.4,29.67,South,191,5.0,8.0,17,0.00,,,0.00,0,WeatherHawk,2013-06-07 04:40:00,
2013-06-06 21:42:00,91.4,40.4,29.67,South,191,6.0,-999.0,17,0.00,,,0.00,0,WeatherHawk,2013-06-07 04:42:00,
2013-06-06 21:44:00,91.4,40.4,29.67,South,189,5.0,8.0,17,0.00,,,0.00,0,WeatherHawk,2013-06-07 04:44:00,
2013-06-06 21:45:00,91.4,40.4,29.67,South,190,6.0,8.0,17,0.00,,,0.00,0,WeatherHawk,2013-06-07 04:45:00,
2013-06-06 21:46:00,91.4,40.4,29.67,South,191,6.0,8.0,17,0.00,,,0.00,0,WeatherHawk,2013-06-07 04:46:00,
2013-06-06 21:49:00,91.2,40.3,29.68,SW,218,4.0,7.0,17,0.00,,,0.00,0,WeatherHawk,2013-06-07 04:49:00,
2013-06-06 21:50:00,91.2,40.3,29.68,WSW,246,4.0,7.0,17,0.00,,,0.00,0,WeatherHawk,2013-06-07 04:50:00,
2013-06-06 21:51:00,91.0,44.4,29.68,WNW,301,11.0,11.0,20,0.00,,,0.00,0,WeatherHawk,2013-06-07 04:51:00,
2013-06-06 21:52:00,91.0,44.4,29.68,WNW,301,11.0,11.0,20,0.00,,,0.00,0,WeatherHawk,2013-06-07 04:52:00,
2013-06-06 21:55:00,86.9,45.7,29.68,West,280,7.0,7.0,24,0.00,,,0.00,0,WeatherHawk,2013-06-07 04:55:00,
2013-06-06 21:57:00,86.5,45.4,29.68,West,261,5.0,7.0,24,0.00,,,0.00,0,WeatherHawk,2013-06-07 04:57:00,
2013-06-06 22:01:00,86.5,45.4,29.68,SSW,193,3.0,12.0,24,0.00,,,0.00,0,WeatherHawk,2013-06-07 05:01:00,
2013-06-06 22:02:00,86.5,45.4,29.68,SSW,193,3.0,-999.0,24,0.00,,,0.00,0,WeatherHawk,2013-06-07 05:02:00,
2013-06-06 22:03:00,86.7,45.6,29.68,West,272,3.0,12.0,24,0.00,,,0.00,0,WeatherHawk,2013-06-07 05:03:00,
2013-06-06 22:06:00,86.7,45.6,29.69,NW,323,9.0,12.0,24,0.00,,,0.00,0,WeatherHawk,2013-06-07 05:06:00,
2013-06-06 22:08:00,86.2,46.2,29.69,NW,319,8.0,9.0,25,0.00,,,0.00,0,WeatherHawk,2013-06-07 05:08:00,
2013-06-06 22:11:00,85.3,46.5,29.69,NW,313,8.0,9.0,26,0.00,,,0.00,0,WeatherHawk,2013-06-07 05:11:00,
2013-06-06 22:12:00,85.3,46.5,29.69,NW,313,8.0,9.0,26,0.00,,,0.00,0,WeatherHawk,2013-06-07 05:12:00,
2013-06-06 22:13:00,84.9,46.2,29.68,WNW,299,6.0,9.0,26,0.00,,,0.00,0,WeatherHawk,2013-06-07 05:13:00,
2013-06-06 22:17:00,84.6,46.9,29.68,WSW,256,2.0,9.0,27,0.00,,,0.00,0,WeatherHawk,2013-06-07 05:17:00,
2013-06-06 22:18:00,84.4,46.7,29.68,SW,216,2.0,9.0,27,0.00,,,0.00,0,WeatherHawk,2013-06-07 05:18:00,
2013-06-06 22:19:00,84.2,46.6,29.68,South,172,2.0,9.0,27,0.00,,,0.00,0,WeatherHawk,2013-06-07 05:19:00,
2013-06-06 22:22:00,84.2,46.6,29.68,SSE,164,3.0,9.0,27,0.00,,,0.00,0,WeatherHawk,2013-06-07 05:22:00,
2013-06-06 22:23:00,84.2,46.6,29.68,SSE,148,1.0,9.0,27,0.00,,,0.00,0,WeatherHawk,2013-06-07 05:23:00,
2013-06-06 22:26:00,84.4,45.7,29.68,NW,316,1.0,9.0,26,0.00,,,0.00,0,WeatherHawk,2013-06-07 05:26:00,
2013-06-06 22:27:00,84.4,45.7,29.68,NW,316,1.0,-999.0,26,0.00,,,0.00,0,WeatherHawk,2013-06-07 05:27:00,
2013-06-06 22:30:00,84.4,45.7,29.69,NW,304,6.0,6.0,26,0.00,,,0.00,0,WeatherHawk,2013-06-07 05:30:00,
2013-06-06 22:32:00,84.6,45.9,29.69,WNW,301,6.0,6.0,26,0.00,,,0.00,0,WeatherHawk,2013-06-07 05:32:00,
2013-06-06 22:33:00,84.6,45.9,29.68,WNW,296,4.0,4.0,26,0.00,,,0.00,0,WeatherHawk,2013-06-07 05:33:00,
2013-06-06 22:34:00,84.6,45.9,29.68,WNW,295,2.0,3.0,26,0.00,,,0.00,0,WeatherHawk,2013-06-07 05:34:00,
2013-06-06 22:37:00,84.6,45.9,29.68,ESE,120,1.0,0.0,26,0.00,,,0.00,0,WeatherHawk,2013-06-07 05:37:00,
2013-06-06 22:43:00,84.4,45.7,29.68,East,89,4.0,6.0,26,0.00,,,0.00,0,WeatherHawk,2013-06-07 05:43:00,
2013-06-06 22:45:00,84.4,45.7,29.68,East,94,4.0,6.0,26,0.00,,,0.00,0,WeatherHawk,2013-06-07 05:45:00,
2013-06-06 22:46:00,84.4,45.7,29.68,East,95,5.0,6.0,26,0.00,,,0.00,0,WeatherHawk,2013-06-07 05:46:00,
2013-06-06 22:48:00,84.4,45.7,29.68,ESE,104,5.0,5.0,26,0.00,,,0.00,0,WeatherHawk,2013-06-07 05:48:00,
2013-06-06 22:52:00,84.6,45.9,29.68,ESE,111,6.0,6.0,26,0.00,,,0.00,0,WeatherHawk,2013-06-07 05:52:00,
2013-06-06 22:55:00,84.6,45.9,29.68,ESE,118,4.0,5.0,26,0.00,,,0.00,0,WeatherHawk,2013-06-07 05:55:00,
2013-06-06 22:56:00,84.6,45.9,29.68,ESE,121,4.0,5.0,26,0.00,,,0.00,0,WeatherHawk,2013-06-07 05:56:00,
2013-06-06 22:57:00,84.6,45.9,29.68,ESE,121,4.0,5.0,26,0.00,,,0.00,0,WeatherHawk,2013-06-07 05:57:00,
2013-06-06 23:01:00,84.0,46.4,29.68,East,101,2.0,6.0,27,0.00,,,0.00,0,WeatherHawk,2013-06-07 06:01:00,
2013-06-06 23:02:00,84.0,46.4,29.68,East,101,2.0,6.0,27,0.00,,,0.00,0,WeatherHawk,2013-06-07 06:02:00,
2013-06-06 23:07:00,84.0,46.4,29.68,NE,34,2.0,6.0,27,0.00,,,0.00,0,WeatherHawk,2013-06-07 06:07:00,
2013-06-06 23:08:00,84.0,46.4,29.68,NE,37,3.0,4.0,27,0.00,,,0.00,0,WeatherHawk,2013-06-07 06:08:00,
2013-06-06 23:12:00,83.5,46.9,29.68,ENE,59,4.0,-999.0,28,0.00,,,0.00,1,WeatherHawk,2013-06-07 06:12:00,
2013-06-06 23:15:00,83.1,46.6,29.69,NE,51,4.0,4.0,28,0.00,,,0.00,0,WeatherHawk,2013-06-07 06:15:00,
2013-06-06 23:17:00,82.9,47.4,29.69,NE,48,4.0,-999.0,29,0.00,,,0.00,0,WeatherHawk,2013-06-07 06:17:00,
2013-06-06 23:18:00,82.9,47.4,29.69,NE,35,4.0,4.0,29,0.00,,,0.00,0,WeatherHawk,2013-06-07 06:18:00,
2013-06-06 23:20:00,83.1,46.6,29.69,North,6,4.0,4.0,28,0.00,,,0.00,0,WeatherHawk,2013-06-07 06:20:00,
2013-06-06 23:21:00,82.9,46.5,29.69,NNW,341,6.0,6.0,28,0.00,,,0.00,0,WeatherHawk,2013-06-07 06:21:00,
2013-06-06 23:22:00,82.9,46.5,29.69,NNW,341,6.0,-999.0,28,0.00,,,0.00,0,WeatherHawk,2013-06-07 06:22:00,
2013-06-06 23:23:00,82.8,47.2,29.69,NNW,337,8.0,8.0,29,0.00,,,0.00,0,WeatherHawk,2013-06-07 06:23:00,
2013-06-06 23:24:00,82.6,47.1,29.69,NNW,336,9.0,9.0,29,0.00,,,0.00,0,WeatherHawk,2013-06-07 06:24:00,
2013-06-06 23:27:00,82.6,47.1,29.69,NNW,336,7.0,7.0,29,0.00,,,0.00,0,WeatherHawk,2013-06-07 06:27:00,
2013-06-06 23:29:00,82.4,46.9,29.69,NNW,327,5.0,9.0,29,0.00,,,0.00,0,WeatherHawk,2013-06-07 06:29:00,
2013-06-06 23:34:00,82.2,46.8,29.69,NW,316,2.0,9.0,29,0.00,,,0.00,0,WeatherHawk,2013-06-07 06:34:00,
2013-06-06 23:35:00,82.4,46.0,29.69,WNW,301,4.0,9.0,28,0.00,,,0.00,0,WeatherHawk,2013-06-07 06:35:00,
2013-06-06 23:39:00,82.9,45.5,29.69,NW,310,3.0,9.0,27,0.00,,,0.00,0,WeatherHawk,2013-06-07 06:39:00,
2013-06-06 23:40:00,83.1,45.6,29.69,WNW,301,2.0,9.0,27,0.00,,,0.00,0,WeatherHawk,2013-06-07 06:40:00,
2013-06-06 23:42:00,83.1,45.6,29.69,North,354,1.0,-999.0,27,0.00,,,0.00,0,WeatherHawk,2013-06-07 06:42:00,
2013-06-06 23:44:00,82.9,45.5,29.69,North,350,2.0,9.0,27,0.00,,,0.00,0,WeatherHawk,2013-06-07 06:44:00,
2013-06-06 23:46:00,82.9,46.5,29.69,North,352,2.0,-999.0,28,0.00,,,0.00,0,WeatherHawk,2013-06-07 06:46:00,
2013-06-06 23:47:00,82.8,46.3,29.69,NNW,344,3.0,6.0,28,0.00,,,0.00,0,WeatherHawk,2013-06-07 06:47:00,
2013-06-06 23:50:00,82.9,45.5,29.69,NW,315,3.0,6.0,27,0.00,,,0.00,0,WeatherHawk,2013-06-07 06:50:00,
2013-06-06 23:52:00,82.9,45.5,29.69,NW,314,2.0,-999.0,27,0.00,,,0.00,0,WeatherHawk,2013-06-07 06:52:00,
2013-06-06 23:53:00,82.9,45.5,29.69,WNW,287,3.0,6.0,27,0.00,,,0.00,1,WeatherHawk,2013-06-07 06:53:00,
2013-06-06 23:56:00,82.8,46.3,29.69,West,279,3.0,6.0,28,0.00,,,0.00,0,WeatherHawk,2013-06-07 06:56:00,
2013-06-06 23:59:00,82.8,46.3,29.69,WNW,290,4.0,4.0,28,0.00,,,0.00,0,WeatherHawk,2013-06-07 06:59:00,